GEFSNGP_prec_meanprecacc_186.txt.gz
Total_Precipitation_Accumulation
0.14 0.10 0.08 0.08 0.08 0.10 0.13 0.19 0.35 0.45 0.45 0.48 0.49 0.52 0.54 0.57 0.53 0.41 0.30 0.22 0.19 0.16 0.16 0.20 0.21 0.20 0.17 0.15 0.17 0.20 0.20 0.19 0.20 0.20 0.19 0.18 0.20 0.20 0.17 0.14 0.12 0.08 0.07 0.08
0.10 0.07 0.07 0.06 0.06 0.09 0.12 0.16 0.24 0.26 0.27 0.25 0.21 0.18 0.17 0.20 0.24 0.21 0.15 0.11 0.11 0.10 0.11 0.13 0.13 0.12 0.11 0.10 0.09 0.10 0.09 0.09 0.11 0.13 0.14 0.15 0.16 0.15 0.13 0.12 0.10 0.07 0.06 0.06
0.11 0.07 0.09 0.08 0.04 0.05 0.09 0.11 0.14 0.17 0.21 0.21 0.15 0.09 0.07 0.07 0.08 0.09 0.10 0.10 0.09 0.08 0.10 0.11 0.10 0.10 0.11 0.09 0.08 0.07 0.06 0.06 0.07 0.07 0.07 0.06 0.05 0.06 0.06 0.06 0.05 0.04 0.04 0.06
0.16 0.14 0.14 0.06 0.03 0.03 0.04 0.05 0.09 0.11 0.11 0.12 0.09 0.07 0.06 0.05 0.05 0.06 0.07 0.09 0.10 0.09 0.08 0.10 0.11 0.11 0.13 0.12 0.10 0.07 0.06 0.06 0.06 0.05 0.05 0.04 0.03 0.03 0.03 0.02 0.03 0.04 0.05 0.08
0.22 0.18 0.09 0.04 0.04 0.04 0.03 0.03 0.04 0.04 0.04 0.03 0.03 0.06 0.05 0.04 0.04 0.05 0.06 0.07 0.08 0.10 0.10 0.10 0.11 0.12 0.13 0.13 0.12 0.09 0.07 0.07 0.06 0.06 0.07 0.07 0.06 0.05 0.03 0.04 0.04 0.05 0.05 0.07
0.25 0.21 0.14 0.06 0.03 0.03 0.03 0.04 0.03 0.03 0.03 0.02 0.03 0.06 0.04 0.04 0.03 0.04 0.05 0.05 0.06 0.06 0.07 0.08 0.11 0.12 0.12 0.13 0.10 0.07 0.07 0.08 0.08 0.07 0.07 0.08 0.08 0.07 0.07 0.07 0.07 0.07 0.06 0.05
0.21 0.20 0.10 0.03 0.02 0.03 0.06 0.06 0.04 0.03 0.03 0.03 0.03 0.04 0.04 0.03 0.02 0.03 0.04 0.04 0.04 0.06 0.07 0.07 0.10 0.12 0.13 0.13 0.10 0.07 0.09 0.11 0.12 0.10 0.10 0.14 0.15 0.11 0.09 0.09 0.10 0.10 0.10 0.08
0.18 0.19 0.10 0.03 0.03 0.04 0.04 0.03 0.03 0.03 0.03 0.03 0.02 0.03 0.02 0.03 0.03 0.03 0.04 0.04 0.04 0.05 0.06 0.06 0.08 0.10 0.12 0.14 0.12 0.11 0.12 0.13 0.14 0.15 0.15 0.17 0.17 0.15 0.13 0.12 0.12 0.12 0.14 0.15
0.11 0.09 0.04 0.03 0.04 0.03 0.03 0.02 0.02 0.02 0.02 0.02 0.02 0.02 0.02 0.02 0.02 0.02 0.02 0.03 0.04 0.05 0.06 0.06 0.09 0.09 0.09 0.13 0.15 0.15 0.15 0.15 0.16 0.17 0.17 0.17 0.18 0.17 0.14 0.12 0.13 0.13 0.15 0.16
0.09 0.05 0.05 0.04 0.03 0.03 0.03 0.02 0.02 0.02 0.02 0.02 0.02 0.01 0.02 0.01 0.01 0.01 0.02 0.02 0.03 0.04 0.05 0.05 0.07 0.10 0.14 0.15 0.17 0.19 0.18 0.17 0.17 0.17 0.17 0.17 0.17 0.16 0.15 0.14 0.13 0.13 0.14 0.16
0.11 0.06 0.05 0.06 0.04 0.03 0.02 0.02 0.01 0.01 0.01 0.01 0.01 0.01 0.01 0.01 0.01 0.02 0.02 0.02 0.04 0.04 0.06 0.06 0.08 0.10 0.13 0.15 0.16 0.17 0.18 0.17 0.16 0.15 0.15 0.15 0.14 0.14 0.14 0.14 0.14 0.16 0.17 0.18
0.11 0.07 0.06 0.06 0.05 0.03 0.02 0.02 0.01 0.01 0.01 0.01 0.01 0.02 0.01 0.01 0.02 0.02 0.02 0.03 0.05 0.07 0.07 0.07 0.08 0.09 0.11 0.13 0.13 0.13 0.15 0.15 0.14 0.13 0.13 0.13 0.13 0.13 0.14 0.16 0.17 0.14 0.14 0.14
0.08 0.07 0.06 0.04 0.04 0.03 0.02 0.02 0.01 0.01 0.01 0.01 0.02 0.03 0.02 0.02 0.02 0.03 0.04 0.04 0.05 0.07 0.07 0.09 0.10 0.10 0.11 0.12 0.14 0.13 0.12 0.13 0.13 0.13 0.14 0.15 0.16 0.17 0.15 0.15 0.14 0.12 0.11 0.12
0.05 0.06 0.06 0.04 0.04 0.03 0.03 0.02 0.01 0.01 0.01 0.01 0.01 0.02 0.03 0.02 0.03 0.04 0.05 0.04 0.04 0.06 0.06 0.07 0.08 0.10 0.11 0.10 0.10 0.13 0.14 0.18 0.18 0.17 0.18 0.18 0.19 0.18 0.16 0.15 0.16 0.14 0.11 0.10
0.04 0.05 0.06 0.05 0.04 0.03 0.03 0.02 0.01 0.01 0.01 0.01 0.02 0.03 0.04 0.04 0.04 0.05 0.05 0.05 0.05 0.05 0.05 0.06 0.05 0.07 0.08 0.09 0.09 0.11 0.14 0.16 0.19 0.20 0.19 0.18 0.18 0.17 0.16 0.15 0.15 0.15 0.14 0.13
0.04 0.04 0.05 0.06 0.05 0.03 0.03 0.03 0.02 0.01 0.01 0.02 0.03 0.03 0.06 0.05 0.04 0.05 0.05 0.05 0.05 0.04 0.05 0.08 0.07 0.06 0.06 0.09 0.10 0.11 0.13 0.15 0.16 0.17 0.18 0.18 0.18 0.18 0.19 0.18 0.18 0.18 0.16 0.16
0.05 0.05 0.05 0.07 0.07 0.05 0.03 0.03 0.02 0.02 0.01 0.01 0.03 0.03 0.04 0.06 0.06 0.07 0.07 0.06 0.06 0.06 0.06 0.07 0.08 0.07 0.06 0.07 0.10 0.12 0.12 0.14 0.15 0.15 0.15 0.16 0.18 0.19 0.20 0.21 0.22 0.22 0.21 0.21
0.06 0.05 0.05 0.06 0.07 0.06 0.03 0.03 0.03 0.02 0.02 0.02 0.02 0.02 0.03 0.05 0.07 0.09 0.09 0.07 0.07 0.07 0.07 0.07 0.07 0.07 0.07 0.07 0.09 0.11 0.13 0.14 0.14 0.14 0.15 0.16 0.17 0.16 0.16 0.16 0.18 0.21 0.22 0.23
0.05 0.04 0.03 0.04 0.05 0.05 0.04 0.03 0.03 0.02 0.02 0.02 0.03 0.03 0.03 0.03 0.04 0.06 0.07 0.07 0.08 0.08 0.07 0.07 0.07 0.06 0.06 0.08 0.09 0.11 0.13 0.14 0.14 0.14 0.14 0.16 0.16 0.15 0.17 0.18 0.20 0.21 0.22 0.23
0.04 0.04 0.04 0.04 0.05 0.04 0.04 0.03 0.03 0.02 0.02 0.02 0.02 0.02 0.03 0.03 0.03 0.04 0.04 0.04 0.05 0.07 0.07 0.07 0.06 0.05 0.06 0.06 0.08 0.09 0.10 0.11 0.11 0.12 0.13 0.14 0.14 0.13 0.16 0.18 0.20 0.21 0.22 0.23
0.05 0.04 0.04 0.05 0.05 0.04 0.03 0.03 0.02 0.02 0.02 0.02 0.02 0.03 0.03 0.02 0.03 0.04 0.04 0.03 0.03 0.04 0.05 0.07 0.06 0.06 0.06 0.07 0.08 0.07 0.08 0.11 0.13 0.15 0.16 0.15 0.15 0.16 0.17 0.18 0.19 0.20 0.21 0.23
0.08 0.07 0.06 0.06 0.05 0.04 0.04 0.04 0.04 0.03 0.02 0.02 0.02 0.03 0.03 0.03 0.03 0.03 0.04 0.04 0.04 0.04 0.04 0.05 0.05 0.06 0.09 0.10 0.08 0.07 0.07 0.08 0.12 0.15 0.16 0.16 0.17 0.18 0.19 0.20 0.22 0.22 0.23 0.25
0.10 0.10 0.09 0.08 0.07 0.06 0.06 0.05 0.06 0.05 0.05 0.04 0.04 0.05 0.05 0.04 0.04 0.04 0.04 0.05 0.04 0.04 0.04 0.05 0.06 0.08 0.11 0.10 0.08 0.07 0.08 0.08 0.10 0.11 0.13 0.14 0.16 0.18 0.19 0.21 0.23 0.25 0.26 0.27
0.11 0.12 0.12 0.10 0.09 0.09 0.09 0.09 0.09 0.07 0.06 0.06 0.07 0.08 0.07 0.07 0.06 0.06 0.06 0.07 0.07 0.07 0.06 0.06 0.07 0.10 0.12 0.09 0.09 0.09 0.08 0.08 0.09 0.10 0.12 0.14 0.16 0.17 0.19 0.20 0.21 0.24 0.26 0.28
0.14 0.15 0.15 0.12 0.12 0.11 0.12 0.12 0.12 0.11 0.10 0.10 0.11 0.12 0.12 0.12 0.11 0.11 0.10 0.09 0.09 0.09 0.08 0.09 0.11 0.11 0.10 0.08 0.09 0.09 0.10 0.10 0.12 0.14 0.14 0.15 0.16 0.18 0.20 0.20 0.21 0.23 0.25 0.29
0.14 0.16 0.17 0.16 0.14 0.13 0.13 0.13 0.13 0.14 0.14 0.13 0.13 0.14 0.16 0.16 0.16 0.16 0.16 0.16 0.16 0.16 0.15 0.15 0.14 0.13 0.12 0.12 0.12 0.12 0.12 0.13 0.15 0.16 0.16 0.17 0.18 0.20 0.22 0.22 0.23 0.25 0.28 0.32
0.15 0.17 0.17 0.17 0.16 0.15 0.15 0.15 0.15 0.15 0.15 0.17 0.16 0.15 0.17 0.19 0.19 0.20 0.21 0.23 0.24 0.24 0.25 0.23 0.21 0.19 0.19 0.18 0.18 0.18 0.18 0.17 0.17 0.17 0.18 0.21 0.23 0.25 0.27 0.28 0.30 0.32 0.34 0.37

GEFSNGP_prec_meanprecacc_192.txt.gz
Total_Precipitation_Accumulation
0.14 0.10 0.09 0.08 0.08 0.10 0.14 0.19 0.35 0.45 0.45 0.48 0.49 0.52 0.54 0.57 0.53 0.42 0.31 0.24 0.21 0.18 0.17 0.21 0.22 0.22 0.20 0.18 0.19 0.22 0.22 0.20 0.21 0.22 0.21 0.19 0.21 0.20 0.18 0.15 0.12 0.09 0.07 0.09
0.11 0.07 0.07 0.06 0.06 0.09 0.12 0.16 0.24 0.26 0.27 0.25 0.21 0.18 0.17 0.20 0.24 0.21 0.16 0.12 0.12 0.12 0.12 0.14 0.15 0.14 0.14 0.12 0.12 0.12 0.11 0.11 0.13 0.15 0.15 0.17 0.16 0.16 0.14 0.12 0.10 0.07 0.06 0.06
0.12 0.07 0.09 0.08 0.04 0.05 0.09 0.11 0.14 0.18 0.21 0.21 0.15 0.09 0.07 0.08 0.08 0.09 0.11 0.11 0.10 0.09 0.12 0.13 0.12 0.12 0.13 0.12 0.11 0.10 0.09 0.09 0.10 0.10 0.09 0.08 0.07 0.07 0.06 0.06 0.05 0.04 0.05 0.06
0.18 0.15 0.15 0.07 0.03 0.03 0.04 0.05 0.09 0.11 0.12 0.13 0.09 0.07 0.06 0.05 0.05 0.06 0.07 0.10 0.11 0.10 0.09 0.12 0.13 0.14 0.16 0.14 0.14 0.10 0.09 0.09 0.08 0.08 0.07 0.06 0.05 0.05 0.03 0.03 0.03 0.04 0.06 0.08
0.25 0.20 0.10 0.04 0.04 0.05 0.03 0.03 0.05 0.05 0.04 0.03 0.03 0.06 0.05 0.04 0.04 0.05 0.06 0.07 0.09 0.10 0.11 0.11 0.12 0.14 0.15 0.15 0.14 0.12 0.09 0.09 0.08 0.08 0.08 0.08 0.07 0.05 0.04 0.04 0.04 0.05 0.05 0.08
0.27 0.23 0.15 0.06 0.03 0.03 0.03 0.05 0.03 0.03 0.03 0.02 0.03 0.06 0.04 0.04 0.03 0.04 0.05 0.06 0.07 0.07 0.08 0.09 0.12 0.14 0.13 0.14 0.11 0.08 0.08 0.09 0.09 0.08 0.08 0.09 0.08 0.08 0.07 0.07 0.08 0.07 0.06 0.05
0.23 0.22 0.11 0.03 0.02 0.03 0.06 0.06 0.04 0.04 0.03 0.04 0.03 0.04 0.04 0.03 0.02 0.03 0.04 0.05 0.05 0.06 0.07 0.07 0.10 0.12 0.13 0.13 0.10 0.08 0.11 0.13 0.13 0.11 0.11 0.15 0.15 0.12 0.09 0.09 0.10 0.10 0.10 0.09
0.20 0.21 0.11 0.03 0.03 0.04 0.05 0.03 0.03 0.03 0.03 0.03 0.02 0.03 0.02 0.03 0.03 0.03 0.04 0.05 0.05 0.06 0.06 0.06 0.09 0.10 0.12 0.14 0.13 0.13 0.14 0.15 0.15 0.15 0.16 0.18 0.18 0.16 0.14 0.13 0.13 0.13 0.15 0.15
0.13 0.10 0.05 0.04 0.05 0.04 0.03 0.03 0.02 0.02 0.02 0.02 0.02 0.02 0.02 0.02 0.02 0.02 0.03 0.03 0.04 0.06 0.06 0.06 0.09 0.09 0.09 0.13 0.16 0.17 0.17 0.17 0.18 0.19 0.18 0.18 0.19 0.18 0.15 0.14 0.14 0.14 0.16 0.17
0.11 0.06 0.06 0.05 0.03 0.03 0.03 0.02 0.02 0.02 0.02 0.02 0.02 0.01 0.02 0.01 0.01 0.01 0.02 0.02 0.03 0.04 0.05 0.06 0.08 0.11 0.14 0.16 0.18 0.20 0.20 0.19 0.19 0.19 0.18 0.18 0.19 0.17 0.16 0.15 0.14 0.14 0.16 0.17
0.12 0.07 0.06 0.07 0.05 0.03 0.03 0.02 0.01 0.01 0.01 0.02 0.02 0.01 0.02 0.02 0.02 0.02 0.02 0.03 0.04 0.05 0.06 0.07 0.08 0.11 0.14 0.16 0.17 0.18 0.19 0.19 0.18 0.17 0.17 0.17 0.16 0.15 0.16 0.16 0.16 0.18 0.19 0.20
0.14 0.08 0.07 0.07 0.05 0.03 0.03 0.02 0.01 0.01 0.01 0.01 0.02 0.02 0.03 0.02 0.03 0.03 0.02 0.03 0.06 0.07 0.07 0.08 0.08 0.09 0.12 0.14 0.14 0.15 0.16 0.16 0.16 0.14 0.15 0.15 0.15 0.15 0.17 0.19 0.20 0.17 0.17 0.17
0.14 0.11 0.08 0.06 0.05 0.03 0.03 0.02 0.01 0.01 0.01 0.01 0.02 0.03 0.04 0.03 0.03 0.03 0.04 0.04 0.05 0.07 0.08 0.10 0.10 0.11 0.13 0.14 0.15 0.15 0.14 0.14 0.14 0.14 0.15 0.17 0.18 0.18 0.17 0.17 0.17 0.14 0.13 0.14
0.11 0.12 0.10 0.07 0.06 0.05 0.03 0.02 0.01 0.01 0.01 0.01 0.02 0.03 0.04 0.03 0.03 0.04 0.05 0.05 0.05 0.07 0.06 0.08 0.09 0.10 0.12 0.11 0.12 0.15 0.17 0.21 0.20 0.19 0.20 0.20 0.22 0.20 0.17 0.17 0.18 0.17 0.14 0.12
0.07 0.09 0.10 0.08 0.06 0.04 0.03 0.02 0.02 0.01 0.01 0.02 0.03 0.04 0.05 0.05 0.05 0.05 0.05 0.06 0.06 0.05 0.06 0.06 0.06 0.07 0.08 0.09 0.10 0.13 0.16 0.19 0.21 0.22 0.22 0.21 0.20 0.19 0.18 0.17 0.18 0.19 0.18 0.16
0.08 0.07 0.08 0.10 0.07 0.04 0.04 0.03 0.02 0.02 0.01 0.02 0.04 0.04 0.07 0.06 0.04 0.05 0.06 0.06 0.06 0.05 0.06 0.08 0.08 0.06 0.07 0.09 0.11 0.13 0.16 0.18 0.18 0.19 0.20 0.22 0.21 0.21 0.23 0.22 0.22 0.22 0.20 0.19
0.09 0.08 0.08 0.10 0.09 0.06 0.04 0.03 0.03 0.02 0.02 0.02 0.03 0.04 0.06 0.07 0.07 0.08 0.08 0.08 0.07 0.07 0.07 0.08 0.10 0.08 0.07 0.08 0.12 0.15 0.15 0.16 0.18 0.19 0.18 0.20 0.22 0.23 0.24 0.25 0.26 0.26 0.25 0.26
0.09 0.08 0.08 0.09 0.09 0.07 0.04 0.03 0.04 0.03 0.03 0.03 0.03 0.03 0.04 0.05 0.08 0.10 0.10 0.08 0.09 0.08 0.08 0.09 0.09 0.09 0.08 0.09 0.10 0.15 0.19 0.18 0.17 0.17 0.19 0.20 0.21 0.20 0.19 0.19 0.21 0.24 0.26 0.27
0.06 0.06 0.06 0.06 0.07 0.06 0.05 0.03 0.04 0.03 0.03 0.03 0.04 0.04 0.04 0.04 0.05 0.07 0.08 0.08 0.08 0.09 0.09 0.09 0.09 0.08 0.08 0.10 0.10 0.13 0.17 0.19 0.19 0.17 0.16 0.19 0.19 0.18 0.20 0.21 0.23 0.24 0.24 0.25
0.05 0.05 0.05 0.05 0.06 0.05 0.06 0.05 0.04 0.03 0.03 0.03 0.04 0.03 0.03 0.04 0.04 0.05 0.05 0.05 0.06 0.08 0.09 0.08 0.07 0.06 0.07 0.08 0.10 0.10 0.12 0.13 0.15 0.17 0.16 0.16 0.16 0.16 0.18 0.21 0.22 0.23 0.25 0.26
0.06 0.05 0.05 0.06 0.06 0.06 0.06 0.06 0.04 0.04 0.03 0.03 0.04 0.04 0.04 0.04 0.04 0.05 0.05 0.04 0.05 0.05 0.06 0.07 0.07 0.06 0.07 0.09 0.10 0.09 0.10 0.12 0.15 0.17 0.18 0.17 0.17 0.18 0.18 0.19 0.21 0.22 0.23 0.25
0.09 0.08 0.07 0.07 0.06 0.07 0.07 0.07 0.06 0.05 0.04 0.03 0.04 0.04 0.05 0.04 0.04 0.04 0.06 0.06 0.06 0.06 0.05 0.06 0.06 0.07 0.10 0.12 0.10 0.09 0.09 0.10 0.13 0.16 0.17 0.17 0.18 0.18 0.20 0.22 0.24 0.24 0.24 0.26
0.11 0.11 0.10 0.09 0.08 0.09 0.10 0.10 0.09 0.07 0.06 0.05 0.05 0.06 0.06 0.06 0.05 0.05 0.06 0.06 0.06 0.06 0.06 0.06 0.08 0.10 0.13 0.11 0.10 0.10 0.10 0.10 0.11 0.13 0.14 0.15 0.17 0.19 0.20 0.22 0.24 0.26 0.27 0.28
0.13 0.14 0.13 0.12 0.11 0.12 0.14 0.14 0.12 0.09 0.08 0.08 0.09 0.09 0.09 0.09 0.08 0.07 0.08 0.09 0.08 0.08 0.08 0.08 0.09 0.12 0.14 0.11 0.11 0.11 0.10 0.10 0.11 0.12 0.13 0.15 0.17 0.18 0.19 0.20 0.22 0.24 0.27 0.29
0.16 0.17 0.17 0.15 0.14 0.14 0.16 0.17 0.17 0.15 0.12 0.12 0.13 0.14 0.14 0.13 0.13 0.13 0.12 0.10 0.10 0.11 0.10 0.11 0.12 0.13 0.11 0.10 0.11 0.12 0.13 0.13 0.15 0.16 0.16 0.16 0.17 0.19 0.20 0.21 0.22 0.24 0.27 0.31
0.16 0.18 0.20 0.19 0.18 0.17 0.17 0.18 0.20 0.20 0.18 0.17 0.16 0.16 0.18 0.18 0.18 0.18 0.19 0.18 0.17 0.17 0.17 0.16 0.16 0.15 0.14 0.14 0.14 0.14 0.14 0.16 0.19 0.19 0.18 0.19 0.20 0.23 0.24 0.24 0.25 0.27 0.30 0.33
0.17 0.19 0.20 0.20 0.19 0.18 0.18 0.19 0.21 0.21 0.21 0.22 0.21 0.19 0.20 0.21 0.22 0.23 0.24 0.25 0.26 0.26 0.26 0.25 0.23 0.21 0.21 0.21 0.20 0.20 0.20 0.19 0.18 0.19 0.20 0.22 0.25 0.27 0.29 0.30 0.32 0.34 0.36 0.38

GEFSNGP_prec_meanprecacc_198.txt.gz
Total_Precipitation_Accumulation
0.16 0.11 0.10 0.09 0.09 0.10 0.14 0.20 0.35 0.45 0.46 0.48 0.49 0.52 0.54 0.57 0.54 0.42 0.32 0.24 0.21 0.18 0.18 0.22 0.23 0.22 0.20 0.18 0.20 0.23 0.22 0.21 0.22 0.23 0.22 0.20 0.21 0.20 0.18 0.15 0.13 0.09 0.07 0.09
0.12 0.08 0.08 0.07 0.07 0.09 0.12 0.17 0.24 0.26 0.27 0.25 0.21 0.18 0.17 0.20 0.24 0.22 0.16 0.13 0.13 0.12 0.13 0.15 0.15 0.14 0.14 0.12 0.12 0.13 0.12 0.11 0.14 0.16 0.16 0.18 0.17 0.16 0.14 0.13 0.11 0.08 0.06 0.07
0.13 0.08 0.10 0.09 0.05 0.06 0.09 0.11 0.14 0.18 0.21 0.21 0.15 0.09 0.07 0.08 0.09 0.10 0.11 0.12 0.11 0.10 0.12 0.14 0.13 0.13 0.14 0.13 0.11 0.10 0.10 0.10 0.11 0.11 0.10 0.09 0.08 0.08 0.06 0.07 0.06 0.05 0.05 0.07
0.20 0.17 0.17 0.08 0.03 0.03 0.04 0.05 0.09 0.11 0.12 0.13 0.09 0.07 0.06 0.05 0.05 0.06 0.08 0.10 0.11 0.10 0.10 0.13 0.14 0.14 0.16 0.15 0.14 0.10 0.09 0.09 0.09 0.09 0.08 0.07 0.06 0.05 0.04 0.04 0.05 0.05 0.07 0.09
0.28 0.22 0.12 0.05 0.05 0.05 0.03 0.03 0.05 0.05 0.04 0.03 0.03 0.06 0.05 0.04 0.04 0.05 0.06 0.07 0.09 0.11 0.11 0.11 0.13 0.14 0.15 0.15 0.15 0.12 0.10 0.09 0.09 0.09 0.09 0.09 0.08 0.07 0.05 0.05 0.06 0.06 0.06 0.08
0.31 0.27 0.17 0.07 0.04 0.03 0.04 0.05 0.04 0.03 0.03 0.02 0.03 0.06 0.05 0.04 0.03 0.04 0.05 0.06 0.07 0.07 0.08 0.09 0.12 0.14 0.13 0.15 0.12 0.09 0.09 0.10 0.11 0.09 0.08 0.10 0.09 0.08 0.07 0.09 0.09 0.08 0.07 0.06
0.28 0.25 0.12 0.04 0.03 0.03 0.07 0.07 0.05 0.04 0.03 0.04 0.03 0.04 0.04 0.03 0.02 0.03 0.05 0.05 0.05 0.06 0.07 0.07 0.10 0.12 0.13 0.14 0.10 0.08 0.11 0.14 0.15 0.13 0.13 0.16 0.16 0.13 0.10 0.10 0.11 0.11 0.10 0.09
0.24 0.23 0.12 0.04 0.04 0.05 0.05 0.04 0.04 0.03 0.03 0.03 0.03 0.03 0.02 0.03 0.03 0.03 0.04 0.05 0.05 0.06 0.07 0.07 0.09 0.10 0.12 0.14 0.13 0.13 0.15 0.16 0.17 0.17 0.18 0.20 0.20 0.17 0.15 0.14 0.14 0.15 0.16 0.16
0.15 0.11 0.06 0.05 0.05 0.04 0.03 0.03 0.02 0.02 0.02 0.02 0.02 0.02 0.02 0.02 0.02 0.03 0.03 0.03 0.04 0.06 0.06 0.06 0.09 0.09 0.10 0.13 0.17 0.17 0.17 0.17 0.19 0.20 0.19 0.19 0.20 0.19 0.16 0.14 0.15 0.15 0.17 0.17
0.12 0.06 0.07 0.07 0.05 0.04 0.03 0.02 0.02 0.02 0.02 0.02 0.02 0.02 0.02 0.02 0.02 0.02 0.02 0.03 0.03 0.05 0.05 0.06 0.08 0.11 0.15 0.16 0.18 0.21 0.21 0.20 0.19 0.20 0.19 0.19 0.20 0.18 0.16 0.16 0.14 0.15 0.16 0.17
0.14 0.08 0.08 0.09 0.07 0.04 0.03 0.02 0.01 0.01 0.01 0.02 0.02 0.01 0.02 0.02 0.02 0.02 0.02 0.03 0.04 0.05 0.06 0.07 0.08 0.11 0.14 0.16 0.17 0.19 0.20 0.20 0.19 0.18 0.17 0.18 0.17 0.17 0.17 0.17 0.18 0.20 0.21 0.22
0.17 0.11 0.10 0.10 0.07 0.05 0.03 0.02 0.02 0.01 0.01 0.01 0.02 0.02 0.03 0.02 0.03 0.03 0.03 0.03 0.06 0.07 0.07 0.08 0.08 0.09 0.12 0.14 0.14 0.15 0.17 0.17 0.16 0.15 0.15 0.16 0.16 0.16 0.18 0.20 0.22 0.19 0.19 0.19
0.18 0.14 0.10 0.08 0.07 0.05 0.03 0.02 0.02 0.01 0.01 0.02 0.02 0.03 0.04 0.03 0.03 0.03 0.04 0.04 0.05 0.08 0.08 0.10 0.11 0.11 0.13 0.14 0.16 0.15 0.14 0.15 0.15 0.15 0.16 0.18 0.19 0.19 0.18 0.18 0.17 0.15 0.14 0.15
0.13 0.14 0.13 0.09 0.08 0.06 0.04 0.02 0.02 0.01 0.01 0.01 0.02 0.03 0.04 0.03 0.03 0.04 0.06 0.05 0.06 0.08 0.07 0.08 0.09 0.11 0.13 0.12 0.13 0.15 0.17 0.21 0.21 0.20 0.21 0.21 0.23 0.21 0.18 0.18 0.19 0.18 0.15 0.14
0.09 0.12 0.13 0.10 0.08 0.06 0.04 0.03 0.02 0.02 0.02 0.02 0.03 0.04 0.06 0.05 0.05 0.05 0.06 0.06 0.06 0.06 0.06 0.07 0.07 0.08 0.09 0.10 0.11 0.14 0.17 0.20 0.22 0.22 0.23 0.22 0.21 0.21 0.20 0.18 0.18 0.20 0.20 0.18
0.09 0.09 0.11 0.14 0.10 0.06 0.05 0.04 0.03 0.02 0.02 0.03 0.04 0.04 0.07 0.06 0.05 0.06 0.07 0.07 0.07 0.06 0.06 0.09 0.08 0.07 0.08 0.10 0.12 0.13 0.16 0.19 0.19 0.20 0.21 0.23 0.23 0.23 0.24 0.24 0.23 0.23 0.22 0.23
0.11 0.11 0.12 0.16 0.14 0.10 0.06 0.05 0.04 0.03 0.02 0.02 0.04 0.05 0.06 0.07 0.08 0.08 0.09 0.09 0.08 0.08 0.08 0.09 0.11 0.08 0.07 0.08 0.13 0.15 0.15 0.17 0.19 0.20 0.20 0.22 0.24 0.25 0.26 0.27 0.28 0.28 0.29 0.30
0.11 0.11 0.12 0.14 0.14 0.13 0.09 0.06 0.06 0.04 0.03 0.03 0.03 0.04 0.05 0.05 0.09 0.11 0.10 0.09 0.09 0.09 0.09 0.10 0.10 0.09 0.09 0.09 0.11 0.15 0.20 0.19 0.18 0.18 0.20 0.21 0.23 0.22 0.22 0.22 0.25 0.29 0.31 0.33
0.09 0.08 0.08 0.10 0.12 0.12 0.10 0.08 0.07 0.05 0.03 0.04 0.05 0.05 0.04 0.04 0.05 0.08 0.09 0.08 0.09 0.10 0.10 0.09 0.10 0.09 0.09 0.11 0.12 0.13 0.18 0.19 0.19 0.19 0.18 0.21 0.22 0.21 0.23 0.24 0.26 0.28 0.29 0.29
0.08 0.07 0.07 0.08 0.09 0.10 0.10 0.08 0.06 0.05 0.04 0.04 0.05 0.05 0.04 0.04 0.05 0.06 0.06 0.06 0.07 0.09 0.10 0.10 0.08 0.07 0.09 0.10 0.12 0.12 0.14 0.15 0.17 0.19 0.19 0.19 0.18 0.18 0.21 0.23 0.24 0.25 0.27 0.28
0.09 0.08 0.07 0.07 0.07 0.07 0.10 0.09 0.06 0.05 0.04 0.04 0.05 0.06 0.05 0.05 0.05 0.06 0.06 0.05 0.05 0.06 0.07 0.09 0.08 0.07 0.09 0.11 0.13 0.12 0.13 0.15 0.17 0.20 0.22 0.21 0.20 0.20 0.21 0.22 0.23 0.23 0.25 0.26
0.11 0.10 0.09 0.09 0.08 0.08 0.10 0.11 0.09 0.07 0.05 0.04 0.05 0.05 0.06 0.06 0.05 0.05 0.07 0.07 0.07 0.07 0.06 0.07 0.07 0.09 0.11 0.13 0.12 0.11 0.12 0.13 0.16 0.19 0.20 0.21 0.22 0.22 0.23 0.24 0.26 0.25 0.26 0.28
0.14 0.13 0.12 0.11 0.11 0.11 0.12 0.12 0.12 0.10 0.09 0.07 0.07 0.07 0.08 0.08 0.07 0.07 0.07 0.08 0.07 0.08 0.07 0.08 0.10 0.13 0.15 0.13 0.12 0.12 0.12 0.12 0.13 0.15 0.16 0.18 0.19 0.21 0.23 0.24 0.27 0.28 0.29 0.30
0.16 0.17 0.16 0.15 0.14 0.14 0.16 0.16 0.15 0.12 0.11 0.11 0.12 0.12 0.11 0.11 0.10 0.09 0.09 0.10 0.10 0.10 0.09 0.09 0.11 0.14 0.16 0.13 0.12 0.12 0.11 0.11 0.13 0.14 0.15 0.17 0.19 0.20 0.21 0.23 0.24 0.27 0.29 0.31
0.18 0.20 0.20 0.18 0.18 0.18 0.19 0.20 0.21 0.19 0.16 0.16 0.17 0.17 0.16 0.15 0.15 0.14 0.13 0.12 0.12 0.12 0.11 0.12 0.14 0.16 0.14 0.12 0.13 0.14 0.14 0.15 0.17 0.18 0.18 0.18 0.19 0.21 0.22 0.22 0.23 0.25 0.28 0.32
0.17 0.20 0.22 0.21 0.21 0.20 0.21 0.21 0.23 0.24 0.23 0.21 0.19 0.19 0.20 0.20 0.19 0.20 0.20 0.19 0.19 0.19 0.19 0.18 0.18 0.18 0.17 0.16 0.16 0.16 0.16 0.18 0.21 0.21 0.21 0.22 0.23 0.24 0.25 0.25 0.26 0.28 0.31 0.35
0.18 0.20 0.21 0.22 0.21 0.20 0.20 0.22 0.25 0.25 0.26 0.27 0.25 0.23 0.23 0.23 0.24 0.25 0.26 0.27 0.29 0.29 0.30 0.28 0.26 0.25 0.25 0.24 0.22 0.22 0.22 0.21 0.21 0.21 0.22 0.25 0.28 0.29 0.30 0.31 0.34 0.36 0.37 0.40

GEFSNGP_prec_meanprecacc_204.txt.gz
Total_Precipitation_Accumulation
0.17 0.13 0.11 0.11 0.11 0.13 0.16 0.22 0.37 0.46 0.46 0.48 0.50 0.53 0.55 0.58 0.54 0.43 0.33 0.25 0.23 0.19 0.19 0.23 0.24 0.24 0.22 0.20 0.22 0.24 0.23 0.21 0.23 0.23 0.23 0.21 0.22 0.21 0.19 0.17 0.15 0.10 0.08 0.10
0.12 0.09 0.08 0.07 0.07 0.10 0.13 0.18 0.25 0.27 0.27 0.25 0.21 0.18 0.17 0.20 0.24 0.22 0.17 0.14 0.14 0.13 0.14 0.16 0.16 0.16 0.16 0.14 0.13 0.14 0.12 0.12 0.15 0.17 0.17 0.18 0.18 0.16 0.15 0.14 0.12 0.09 0.07 0.08
0.14 0.09 0.11 0.10 0.05 0.06 0.10 0.11 0.14 0.18 0.22 0.21 0.15 0.09 0.07 0.08 0.09 0.10 0.11 0.12 0.11 0.11 0.14 0.15 0.14 0.14 0.16 0.14 0.12 0.11 0.11 0.11 0.12 0.12 0.11 0.10 0.08 0.08 0.07 0.08 0.08 0.06 0.06 0.08
0.23 0.19 0.20 0.09 0.04 0.04 0.04 0.05 0.09 0.11 0.12 0.13 0.10 0.07 0.06 0.05 0.06 0.07 0.08 0.10 0.12 0.11 0.10 0.14 0.15 0.15 0.16 0.16 0.15 0.12 0.11 0.10 0.10 0.10 0.10 0.08 0.07 0.06 0.05 0.05 0.06 0.07 0.09 0.11
0.32 0.26 0.14 0.07 0.06 0.05 0.04 0.04 0.06 0.05 0.04 0.03 0.04 0.06 0.05 0.04 0.04 0.05 0.06 0.07 0.09 0.11 0.11 0.12 0.13 0.15 0.15 0.15 0.16 0.14 0.12 0.11 0.10 0.10 0.11 0.11 0.09 0.08 0.06 0.07 0.08 0.07 0.08 0.10
0.35 0.31 0.20 0.10 0.05 0.04 0.04 0.07 0.06 0.04 0.03 0.03 0.03 0.06 0.05 0.04 0.04 0.04 0.05 0.06 0.07 0.07 0.09 0.09 0.12 0.14 0.14 0.15 0.13 0.10 0.10 0.12 0.12 0.11 0.10 0.11 0.11 0.10 0.09 0.11 0.12 0.10 0.09 0.07
0.30 0.28 0.15 0.06 0.04 0.04 0.08 0.08 0.06 0.05 0.04 0.04 0.04 0.04 0.04 0.03 0.02 0.04 0.05 0.05 0.05 0.07 0.08 0.08 0.11 0.13 0.14 0.14 0.10 0.09 0.12 0.15 0.17 0.15 0.14 0.17 0.17 0.14 0.11 0.11 0.13 0.13 0.13 0.11
0.27 0.26 0.15 0.06 0.06 0.08 0.08 0.05 0.04 0.04 0.03 0.03 0.03 0.03 0.03 0.03 0.03 0.04 0.04 0.05 0.05 0.06 0.07 0.07 0.10 0.11 0.13 0.15 0.14 0.14 0.15 0.17 0.18 0.19 0.19 0.21 0.21 0.19 0.16 0.16 0.18 0.19 0.19 0.18
0.18 0.13 0.07 0.07 0.08 0.08 0.06 0.04 0.03 0.02 0.03 0.02 0.03 0.03 0.02 0.03 0.03 0.03 0.03 0.03 0.05 0.06 0.07 0.07 0.10 0.10 0.12 0.15 0.18 0.18 0.18 0.18 0.19 0.21 0.20 0.20 0.21 0.20 0.17 0.16 0.17 0.19 0.20 0.20
0.15 0.08 0.08 0.09 0.09 0.08 0.07 0.04 0.02 0.02 0.02 0.02 0.02 0.02 0.02 0.02 0.02 0.02 0.03 0.03 0.04 0.05 0.05 0.07 0.09 0.12 0.16 0.18 0.20 0.22 0.21 0.21 0.20 0.20 0.20 0.20 0.21 0.19 0.17 0.17 0.16 0.17 0.19 0.20
0.17 0.12 0.10 0.11 0.10 0.08 0.07 0.04 0.02 0.01 0.02 0.02 0.02 0.02 0.02 0.02 0.02 0.02 0.02 0.03 0.04 0.05 0.06 0.07 0.09 0.12 0.15 0.17 0.18 0.19 0.20 0.21 0.21 0.19 0.18 0.19 0.18 0.19 0.20 0.18 0.19 0.22 0.23 0.24
0.22 0.15 0.14 0.13 0.10 0.07 0.06 0.04 0.03 0.02 0.02 0.02 0.02 0.03 0.03 0.03 0.03 0.03 0.03 0.03 0.06 0.07 0.08 0.08 0.09 0.10 0.13 0.15 0.15 0.15 0.18 0.18 0.18 0.17 0.17 0.17 0.17 0.18 0.22 0.25 0.26 0.22 0.21 0.21
0.23 0.18 0.14 0.11 0.09 0.07 0.06 0.04 0.03 0.02 0.02 0.02 0.02 0.03 0.05 0.03 0.03 0.04 0.05 0.04 0.06 0.08 0.09 0.10 0.11 0.12 0.13 0.14 0.16 0.15 0.14 0.16 0.16 0.17 0.17 0.19 0.20 0.21 0.20 0.21 0.21 0.18 0.17 0.17
0.16 0.18 0.16 0.11 0.10 0.08 0.06 0.05 0.03 0.02 0.01 0.02 0.02 0.03 0.04 0.04 0.04 0.05 0.07 0.06 0.06 0.08 0.07 0.08 0.09 0.11 0.13 0.12 0.13 0.16 0.17 0.22 0.22 0.21 0.21 0.22 0.24 0.22 0.20 0.20 0.21 0.20 0.17 0.16
0.11 0.14 0.16 0.12 0.09 0.07 0.06 0.05 0.04 0.02 0.02 0.02 0.03 0.04 0.06 0.05 0.06 0.07 0.07 0.07 0.07 0.07 0.06 0.07 0.07 0.08 0.10 0.11 0.11 0.15 0.18 0.21 0.23 0.24 0.23 0.22 0.22 0.21 0.21 0.20 0.20 0.21 0.21 0.20
0.11 0.11 0.14 0.15 0.12 0.07 0.06 0.06 0.06 0.04 0.03 0.03 0.04 0.04 0.08 0.07 0.06 0.07 0.08 0.07 0.07 0.06 0.06 0.09 0.08 0.07 0.09 0.11 0.12 0.14 0.17 0.20 0.21 0.22 0.23 0.24 0.23 0.24 0.25 0.24 0.25 0.25 0.23 0.25
0.13 0.13 0.14 0.18 0.16 0.11 0.08 0.08 0.08 0.06 0.04 0.03 0.04 0.05 0.07 0.09 0.09 0.08 0.09 0.09 0.09 0.08 0.08 0.10 0.11 0.09 0.08 0.10 0.14 0.16 0.16 0.18 0.21 0.22 0.22 0.22 0.25 0.25 0.27 0.28 0.29 0.30 0.31 0.33
0.13 0.13 0.15 0.17 0.17 0.15 0.11 0.10 0.11 0.08 0.05 0.04 0.04 0.05 0.06 0.06 0.09 0.11 0.11 0.09 0.10 0.09 0.09 0.10 0.10 0.10 0.10 0.12 0.13 0.17 0.21 0.21 0.19 0.20 0.22 0.23 0.24 0.23 0.23 0.23 0.27 0.31 0.34 0.37
0.10 0.09 0.10 0.12 0.14 0.14 0.13 0.11 0.12 0.09 0.06 0.06 0.06 0.06 0.05 0.05 0.06 0.08 0.09 0.09 0.10 0.10 0.10 0.10 0.10 0.10 0.11 0.13 0.14 0.15 0.19 0.21 0.21 0.20 0.20 0.23 0.23 0.22 0.24 0.25 0.28 0.31 0.31 0.32
0.09 0.08 0.09 0.10 0.10 0.11 0.12 0.10 0.08 0.09 0.07 0.06 0.07 0.07 0.06 0.06 0.06 0.06 0.06 0.06 0.08 0.10 0.11 0.10 0.09 0.09 0.10 0.12 0.13 0.13 0.15 0.17 0.19 0.21 0.22 0.21 0.20 0.20 0.22 0.25 0.26 0.28 0.29 0.30
0.11 0.11 0.10 0.09 0.08 0.08 0.11 0.11 0.08 0.08 0.09 0.09 0.09 0.09 0.08 0.06 0.06 0.07 0.07 0.05 0.06 0.07 0.08 0.10 0.09 0.08 0.10 0.12 0.14 0.13 0.15 0.17 0.19 0.22 0.24 0.24 0.22 0.22 0.23 0.24 0.24 0.26 0.27 0.28
0.15 0.14 0.12 0.10 0.09 0.09 0.10 0.13 0.12 0.09 0.09 0.09 0.09 0.10 0.09 0.09 0.07 0.07 0.07 0.08 0.08 0.08 0.07 0.08 0.08 0.10 0.14 0.15 0.13 0.13 0.14 0.16 0.19 0.22 0.23 0.24 0.25 0.25 0.25 0.26 0.27 0.27 0.29 0.31
0.18 0.17 0.15 0.13 0.12 0.12 0.13 0.13 0.14 0.12 0.10 0.09 0.09 0.11 0.12 0.11 0.10 0.09 0.09 0.09 0.09 0.09 0.08 0.09 0.11 0.15 0.19 0.17 0.14 0.14 0.15 0.15 0.16 0.17 0.18 0.20 0.22 0.24 0.25 0.26 0.29 0.30 0.32 0.33
0.19 0.19 0.19 0.18 0.16 0.16 0.18 0.18 0.16 0.14 0.13 0.13 0.14 0.14 0.14 0.14 0.13 0.11 0.12 0.12 0.12 0.12 0.10 0.11 0.14 0.17 0.20 0.17 0.17 0.16 0.15 0.14 0.16 0.17 0.18 0.19 0.21 0.21 0.23 0.24 0.26 0.29 0.32 0.34
0.20 0.22 0.23 0.22 0.22 0.21 0.22 0.22 0.22 0.20 0.19 0.18 0.19 0.19 0.18 0.18 0.18 0.17 0.16 0.14 0.14 0.14 0.12 0.14 0.17 0.18 0.17 0.16 0.18 0.19 0.20 0.20 0.21 0.22 0.21 0.21 0.21 0.23 0.24 0.24 0.25 0.28 0.31 0.35
0.19 0.22 0.24 0.25 0.24 0.23 0.24 0.24 0.26 0.26 0.25 0.24 0.22 0.22 0.22 0.22 0.22 0.23 0.22 0.22 0.21 0.21 0.20 0.20 0.19 0.19 0.18 0.19 0.21 0.21 0.21 0.23 0.26 0.25 0.24 0.25 0.26 0.28 0.29 0.28 0.28 0.30 0.33 0.37
0.20 0.21 0.22 0.23 0.23 0.22 0.22 0.24 0.28 0.28 0.29 0.30 0.29 0.26 0.26 0.26 0.27 0.28 0.29 0.30 0.31 0.30 0.31 0.30 0.28 0.27 0.27 0.26 0.25 0.27 0.26 0.24 0.24 0.24 0.25 0.27 0.31 0.32 0.33 0.34 0.36 0.37 0.39 0.41

GEFSNGP_prec_meanprecacc_210.txt.gz
Total_Precipitation_Accumulation
0.17 0.13 0.12 0.11 0.12 0.13 0.18 0.24 0.39 0.47 0.47 0.48 0.50 0.53 0.56 0.59 0.55 0.44 0.34 0.28 0.26 0.24 0.23 0.25 0.26 0.27 0.24 0.23 0.26 0.28 0.26 0.26 0.30 0.29 0.26 0.23 0.25 0.24 0.22 0.20 0.17 0.12 0.10 0.13
0.12 0.09 0.08 0.07 0.08 0.11 0.14 0.18 0.26 0.28 0.28 0.26 0.22 0.18 0.18 0.22 0.25 0.23 0.18 0.15 0.15 0.15 0.17 0.19 0.19 0.18 0.18 0.17 0.17 0.17 0.15 0.14 0.19 0.22 0.20 0.21 0.21 0.19 0.18 0.18 0.17 0.12 0.09 0.10
0.15 0.09 0.11 0.10 0.06 0.08 0.13 0.12 0.15 0.19 0.22 0.22 0.16 0.10 0.09 0.10 0.10 0.11 0.12 0.13 0.12 0.12 0.16 0.18 0.17 0.17 0.19 0.18 0.16 0.14 0.13 0.13 0.15 0.17 0.14 0.13 0.12 0.11 0.09 0.11 0.12 0.10 0.08 0.10
0.23 0.20 0.21 0.11 0.05 0.05 0.06 0.07 0.11 0.12 0.13 0.15 0.12 0.10 0.09 0.08 0.08 0.08 0.09 0.11 0.12 0.12 0.12 0.15 0.17 0.18 0.20 0.20 0.18 0.15 0.13 0.12 0.12 0.13 0.12 0.11 0.12 0.10 0.08 0.08 0.10 0.10 0.11 0.13
0.33 0.27 0.14 0.08 0.07 0.06 0.05 0.05 0.07 0.06 0.05 0.05 0.05 0.09 0.08 0.06 0.06 0.06 0.07 0.08 0.09 0.11 0.12 0.13 0.14 0.17 0.18 0.18 0.18 0.17 0.16 0.13 0.12 0.12 0.13 0.13 0.12 0.11 0.09 0.11 0.12 0.10 0.10 0.11
0.37 0.33 0.21 0.11 0.06 0.05 0.05 0.08 0.08 0.05 0.04 0.04 0.05 0.08 0.07 0.05 0.04 0.05 0.06 0.07 0.07 0.08 0.09 0.10 0.13 0.16 0.16 0.17 0.15 0.13 0.14 0.14 0.14 0.12 0.11 0.13 0.12 0.12 0.12 0.14 0.15 0.13 0.11 0.09
0.33 0.30 0.16 0.07 0.05 0.05 0.10 0.10 0.08 0.07 0.05 0.06 0.06 0.05 0.05 0.04 0.03 0.04 0.05 0.06 0.06 0.07 0.08 0.08 0.12 0.15 0.16 0.16 0.12 0.11 0.15 0.19 0.20 0.17 0.16 0.19 0.19 0.16 0.14 0.14 0.16 0.15 0.15 0.12
0.28 0.29 0.16 0.06 0.06 0.09 0.10 0.07 0.06 0.06 0.06 0.06 0.05 0.04 0.04 0.04 0.04 0.05 0.05 0.06 0.05 0.07 0.08 0.08 0.11 0.14 0.16 0.18 0.16 0.16 0.18 0.21 0.23 0.23 0.23 0.24 0.24 0.21 0.19 0.18 0.19 0.20 0.21 0.19
0.20 0.15 0.08 0.07 0.09 0.09 0.08 0.08 0.06 0.06 0.06 0.05 0.04 0.04 0.04 0.05 0.04 0.04 0.04 0.04 0.05 0.06 0.07 0.07 0.11 0.12 0.14 0.18 0.20 0.20 0.22 0.23 0.24 0.25 0.25 0.24 0.24 0.23 0.20 0.17 0.18 0.21 0.22 0.21
0.17 0.09 0.09 0.10 0.09 0.09 0.09 0.07 0.05 0.05 0.05 0.05 0.04 0.04 0.04 0.04 0.04 0.03 0.04 0.03 0.04 0.05 0.06 0.07 0.10 0.14 0.19 0.20 0.21 0.24 0.25 0.26 0.24 0.23 0.23 0.24 0.24 0.23 0.20 0.18 0.17 0.19 0.21 0.21
0.19 0.13 0.12 0.13 0.11 0.09 0.09 0.06 0.04 0.03 0.03 0.05 0.04 0.04 0.05 0.05 0.04 0.04 0.03 0.04 0.05 0.05 0.07 0.08 0.11 0.14 0.17 0.19 0.21 0.22 0.25 0.25 0.25 0.22 0.20 0.20 0.21 0.22 0.23 0.21 0.22 0.23 0.25 0.26
0.24 0.16 0.15 0.15 0.11 0.08 0.08 0.06 0.04 0.03 0.03 0.03 0.04 0.05 0.06 0.06 0.05 0.04 0.04 0.04 0.06 0.08 0.08 0.09 0.10 0.12 0.15 0.17 0.18 0.19 0.22 0.22 0.22 0.22 0.20 0.19 0.20 0.22 0.27 0.30 0.32 0.26 0.24 0.23
0.25 0.19 0.16 0.12 0.11 0.09 0.08 0.07 0.05 0.03 0.03 0.03 0.03 0.05 0.08 0.06 0.05 0.05 0.06 0.05 0.06 0.09 0.09 0.11 0.13 0.14 0.16 0.16 0.17 0.18 0.17 0.18 0.19 0.21 0.21 0.21 0.22 0.23 0.24 0.24 0.25 0.22 0.20 0.19
0.17 0.20 0.19 0.14 0.13 0.11 0.09 0.08 0.06 0.04 0.03 0.03 0.03 0.05 0.07 0.06 0.06 0.06 0.08 0.07 0.07 0.09 0.08 0.09 0.10 0.14 0.16 0.15 0.14 0.17 0.20 0.24 0.25 0.24 0.24 0.25 0.26 0.24 0.22 0.22 0.24 0.22 0.19 0.17
0.13 0.16 0.18 0.15 0.12 0.09 0.08 0.09 0.08 0.05 0.04 0.04 0.05 0.06 0.09 0.08 0.08 0.09 0.08 0.08 0.08 0.08 0.07 0.07 0.07 0.10 0.13 0.14 0.14 0.17 0.20 0.23 0.25 0.26 0.27 0.26 0.25 0.24 0.23 0.22 0.23 0.25 0.23 0.21
0.12 0.13 0.15 0.17 0.13 0.08 0.08 0.11 0.11 0.07 0.04 0.05 0.06 0.07 0.11 0.10 0.09 0.10 0.10 0.10 0.09 0.07 0.07 0.09 0.09 0.09 0.11 0.13 0.15 0.17 0.21 0.23 0.23 0.24 0.26 0.26 0.25 0.25 0.27 0.27 0.28 0.29 0.26 0.27
0.15 0.15 0.17 0.21 0.17 0.12 0.11 0.12 0.12 0.09 0.06 0.04 0.06 0.07 0.09 0.12 0.12 0.12 0.12 0.12 0.10 0.09 0.09 0.10 0.12 0.11 0.11 0.13 0.18 0.19 0.19 0.21 0.23 0.24 0.24 0.25 0.27 0.28 0.30 0.31 0.32 0.34 0.35 0.37
0.16 0.17 0.19 0.20 0.19 0.18 0.16 0.13 0.14 0.10 0.07 0.06 0.06 0.07 0.09 0.10 0.13 0.14 0.14 0.13 0.12 0.10 0.10 0.11 0.11 0.12 0.12 0.13 0.16 0.20 0.24 0.23 0.22 0.23 0.25 0.25 0.26 0.27 0.26 0.26 0.29 0.34 0.38 0.41
0.12 0.12 0.15 0.15 0.17 0.19 0.16 0.13 0.14 0.11 0.08 0.08 0.08 0.08 0.08 0.08 0.09 0.10 0.11 0.11 0.11 0.11 0.11 0.10 0.11 0.11 0.12 0.15 0.16 0.17 0.22 0.24 0.25 0.25 0.23 0.26 0.27 0.25 0.26 0.27 0.30 0.33 0.34 0.35
0.12 0.12 0.14 0.14 0.14 0.14 0.14 0.11 0.10 0.10 0.08 0.09 0.10 0.09 0.09 0.09 0.08 0.08 0.08 0.08 0.09 0.11 0.12 0.12 0.10 0.09 0.11 0.13 0.16 0.15 0.19 0.20 0.22 0.24 0.25 0.24 0.23 0.23 0.25 0.27 0.28 0.30 0.31 0.33
0.16 0.15 0.15 0.14 0.12 0.10 0.12 0.12 0.09 0.09 0.11 0.11 0.12 0.12 0.10 0.09 0.08 0.09 0.08 0.07 0.07 0.08 0.09 0.12 0.10 0.09 0.11 0.15 0.17 0.16 0.17 0.20 0.22 0.25 0.28 0.27 0.26 0.27 0.27 0.27 0.27 0.28 0.29 0.30
0.19 0.18 0.17 0.16 0.12 0.10 0.11 0.14 0.13 0.10 0.10 0.12 0.12 0.13 0.12 0.11 0.10 0.09 0.09 0.10 0.09 0.09 0.09 0.09 0.10 0.12 0.15 0.18 0.16 0.16 0.19 0.20 0.22 0.25 0.26 0.28 0.29 0.29 0.29 0.30 0.30 0.29 0.31 0.34
0.22 0.20 0.19 0.18 0.15 0.14 0.13 0.14 0.14 0.12 0.12 0.12 0.12 0.14 0.14 0.14 0.13 0.13 0.12 0.11 0.11 0.11 0.09 0.10 0.13 0.17 0.21 0.18 0.16 0.16 0.17 0.18 0.20 0.20 0.21 0.23 0.25 0.27 0.29 0.30 0.32 0.33 0.35 0.37
0.22 0.22 0.23 0.22 0.19 0.18 0.19 0.18 0.16 0.15 0.14 0.15 0.16 0.17 0.17 0.17 0.16 0.15 0.16 0.16 0.15 0.14 0.12 0.13 0.15 0.19 0.22 0.19 0.19 0.18 0.16 0.16 0.19 0.21 0.21 0.22 0.24 0.25 0.27 0.28 0.29 0.32 0.34 0.37
0.23 0.25 0.26 0.25 0.25 0.23 0.23 0.23 0.23 0.21 0.20 0.20 0.21 0.22 0.21 0.21 0.21 0.20 0.19 0.17 0.18 0.17 0.14 0.15 0.18 0.20 0.19 0.18 0.20 0.21 0.22 0.22 0.25 0.26 0.26 0.25 0.27 0.29 0.29 0.29 0.29 0.32 0.34 0.39
0.23 0.25 0.27 0.28 0.27 0.25 0.25 0.25 0.27 0.27 0.26 0.25 0.23 0.23 0.24 0.24 0.24 0.24 0.24 0.24 0.23 0.23 0.22 0.21 0.21 0.21 0.20 0.21 0.23 0.23 0.23 0.26 0.29 0.30 0.28 0.29 0.30 0.33 0.36 0.36 0.35 0.36 0.37 0.42
0.22 0.25 0.24 0.25 0.25 0.24 0.25 0.26 0.29 0.29 0.30 0.32 0.30 0.27 0.27 0.28 0.29 0.29 0.30 0.32 0.33 0.32 0.32 0.31 0.29 0.28 0.28 0.27 0.27 0.28 0.28 0.27 0.27 0.27 0.29 0.31 0.33 0.35 0.37 0.39 0.42 0.43 0.44 0.45

GEFSNGP_prec_meanprecacc_216.txt.gz
Total_Precipitation_Accumulation
0.17 0.13 0.12 0.11 0.12 0.14 0.18 0.25 0.39 0.47 0.47 0.48 0.50 0.54 0.56 0.60 0.57 0.46 0.37 0.30 0.27 0.26 0.24 0.28 0.29 0.28 0.27 0.25 0.28 0.30 0.28 0.28 0.32 0.32 0.29 0.26 0.27 0.26 0.24 0.22 0.19 0.14 0.12 0.14
0.13 0.09 0.09 0.08 0.08 0.11 0.14 0.19 0.27 0.28 0.28 0.26 0.22 0.19 0.18 0.22 0.26 0.24 0.21 0.18 0.19 0.19 0.19 0.22 0.22 0.21 0.21 0.20 0.20 0.20 0.18 0.18 0.23 0.27 0.24 0.24 0.23 0.22 0.20 0.20 0.18 0.14 0.11 0.12
0.15 0.09 0.12 0.11 0.06 0.09 0.13 0.13 0.16 0.20 0.23 0.23 0.17 0.11 0.09 0.10 0.11 0.12 0.14 0.15 0.14 0.14 0.19 0.22 0.21 0.21 0.21 0.21 0.19 0.17 0.17 0.19 0.23 0.22 0.17 0.16 0.16 0.14 0.11 0.13 0.14 0.12 0.10 0.12
0.23 0.20 0.22 0.11 0.05 0.05 0.07 0.07 0.11 0.13 0.14 0.15 0.12 0.11 0.09 0.08 0.08 0.09 0.10 0.12 0.13 0.13 0.14 0.19 0.20 0.21 0.22 0.22 0.21 0.18 0.17 0.18 0.21 0.20 0.17 0.13 0.14 0.13 0.09 0.10 0.11 0.12 0.13 0.14
0.33 0.28 0.15 0.08 0.07 0.06 0.05 0.06 0.08 0.07 0.06 0.05 0.06 0.09 0.08 0.06 0.06 0.07 0.08 0.08 0.10 0.12 0.14 0.15 0.16 0.19 0.20 0.19 0.21 0.20 0.19 0.18 0.18 0.19 0.18 0.16 0.13 0.12 0.11 0.13 0.14 0.12 0.11 0.13
0.38 0.34 0.21 0.11 0.06 0.05 0.05 0.09 0.09 0.07 0.06 0.05 0.06 0.09 0.07 0.06 0.05 0.05 0.07 0.07 0.08 0.08 0.11 0.12 0.14 0.18 0.19 0.20 0.17 0.16 0.17 0.18 0.19 0.18 0.16 0.16 0.14 0.14 0.14 0.16 0.17 0.15 0.13 0.11
0.33 0.31 0.17 0.07 0.05 0.06 0.11 0.11 0.09 0.08 0.07 0.07 0.07 0.07 0.06 0.05 0.03 0.05 0.06 0.06 0.06 0.08 0.09 0.10 0.14 0.17 0.22 0.23 0.15 0.14 0.19 0.23 0.24 0.22 0.20 0.22 0.22 0.18 0.17 0.17 0.19 0.18 0.17 0.14
0.30 0.30 0.17 0.07 0.07 0.10 0.11 0.08 0.06 0.06 0.06 0.07 0.06 0.05 0.05 0.05 0.04 0.05 0.06 0.07 0.06 0.07 0.08 0.09 0.13 0.17 0.21 0.25 0.21 0.18 0.21 0.24 0.28 0.28 0.27 0.27 0.27 0.24 0.22 0.22 0.23 0.24 0.24 0.22
0.22 0.16 0.09 0.08 0.09 0.10 0.09 0.08 0.07 0.06 0.06 0.06 0.06 0.05 0.05 0.05 0.04 0.04 0.05 0.05 0.06 0.07 0.07 0.08 0.12 0.15 0.18 0.21 0.23 0.22 0.25 0.26 0.28 0.30 0.29 0.28 0.27 0.25 0.22 0.20 0.20 0.23 0.24 0.24
0.19 0.10 0.09 0.10 0.10 0.10 0.09 0.07 0.05 0.05 0.06 0.06 0.06 0.06 0.06 0.05 0.04 0.04 0.04 0.04 0.05 0.06 0.06 0.07 0.11 0.15 0.22 0.23 0.22 0.26 0.27 0.28 0.28 0.27 0.27 0.27 0.27 0.26 0.23 0.21 0.19 0.20 0.23 0.23
0.21 0.14 0.13 0.13 0.11 0.10 0.10 0.07 0.04 0.03 0.04 0.05 0.05 0.05 0.07 0.07 0.05 0.04 0.04 0.05 0.06 0.06 0.08 0.09 0.12 0.15 0.18 0.21 0.21 0.24 0.26 0.27 0.27 0.25 0.23 0.23 0.23 0.24 0.25 0.24 0.24 0.25 0.27 0.27
0.26 0.18 0.17 0.16 0.12 0.09 0.08 0.07 0.05 0.04 0.04 0.04 0.05 0.07 0.09 0.08 0.06 0.05 0.05 0.05 0.08 0.09 0.09 0.10 0.11 0.12 0.15 0.18 0.19 0.20 0.23 0.24 0.24 0.25 0.23 0.21 0.22 0.24 0.30 0.33 0.34 0.28 0.26 0.24
0.27 0.21 0.17 0.13 0.11 0.09 0.09 0.08 0.07 0.05 0.05 0.05 0.05 0.07 0.11 0.10 0.07 0.07 0.07 0.06 0.08 0.10 0.10 0.12 0.13 0.15 0.16 0.16 0.18 0.19 0.18 0.20 0.21 0.22 0.23 0.23 0.25 0.26 0.27 0.27 0.28 0.25 0.22 0.21
0.19 0.23 0.21 0.15 0.13 0.11 0.10 0.09 0.08 0.06 0.05 0.06 0.06 0.08 0.10 0.10 0.09 0.09 0.09 0.08 0.08 0.10 0.09 0.09 0.11 0.14 0.17 0.16 0.15 0.19 0.21 0.26 0.27 0.26 0.26 0.27 0.29 0.27 0.24 0.24 0.25 0.24 0.21 0.19
0.14 0.18 0.20 0.16 0.12 0.09 0.08 0.09 0.09 0.07 0.06 0.07 0.07 0.08 0.12 0.11 0.12 0.12 0.11 0.10 0.10 0.09 0.08 0.08 0.08 0.11 0.14 0.16 0.16 0.18 0.21 0.24 0.27 0.29 0.29 0.28 0.27 0.26 0.26 0.24 0.24 0.26 0.25 0.23
0.14 0.13 0.16 0.18 0.14 0.08 0.08 0.12 0.14 0.11 0.09 0.08 0.08 0.08 0.13 0.13 0.13 0.13 0.12 0.12 0.11 0.09 0.09 0.10 0.10 0.10 0.13 0.16 0.18 0.19 0.22 0.25 0.25 0.27 0.28 0.28 0.27 0.28 0.30 0.30 0.30 0.30 0.27 0.28
0.17 0.17 0.18 0.22 0.18 0.13 0.12 0.15 0.16 0.12 0.08 0.06 0.07 0.08 0.11 0.15 0.15 0.15 0.14 0.13 0.12 0.11 0.10 0.12 0.13 0.12 0.12 0.15 0.21 0.23 0.21 0.24 0.27 0.27 0.26 0.26 0.29 0.30 0.33 0.34 0.35 0.35 0.36 0.39
0.20 0.20 0.21 0.22 0.21 0.22 0.22 0.18 0.17 0.13 0.09 0.08 0.07 0.08 0.10 0.13 0.16 0.17 0.16 0.14 0.14 0.13 0.12 0.12 0.12 0.13 0.13 0.15 0.18 0.22 0.26 0.25 0.26 0.26 0.27 0.27 0.28 0.28 0.29 0.29 0.32 0.37 0.40 0.43
0.15 0.16 0.18 0.20 0.23 0.27 0.23 0.17 0.17 0.13 0.09 0.10 0.09 0.09 0.10 0.11 0.12 0.12 0.13 0.13 0.14 0.14 0.13 0.12 0.12 0.12 0.13 0.16 0.18 0.19 0.24 0.26 0.27 0.27 0.25 0.28 0.29 0.26 0.28 0.29 0.32 0.36 0.37 0.38
0.15 0.15 0.19 0.22 0.23 0.22 0.19 0.15 0.13 0.12 0.10 0.10 0.11 0.11 0.11 0.11 0.12 0.12 0.11 0.11 0.11 0.13 0.14 0.13 0.11 0.10 0.12 0.15 0.17 0.17 0.21 0.23 0.24 0.26 0.27 0.26 0.25 0.25 0.26 0.28 0.30 0.33 0.35 0.36
0.19 0.20 0.21 0.23 0.21 0.16 0.17 0.16 0.12 0.12 0.12 0.13 0.13 0.14 0.13 0.13 0.13 0.13 0.12 0.11 0.10 0.10 0.11 0.14 0.12 0.10 0.12 0.16 0.19 0.17 0.19 0.22 0.24 0.27 0.29 0.28 0.28 0.29 0.29 0.29 0.29 0.30 0.31 0.33
0.23 0.23 0.24 0.24 0.21 0.18 0.17 0.18 0.16 0.13 0.12 0.14 0.14 0.15 0.15 0.15 0.14 0.13 0.13 0.13 0.12 0.12 0.11 0.11 0.11 0.14 0.18 0.20 0.18 0.19 0.21 0.23 0.25 0.27 0.28 0.29 0.30 0.30 0.31 0.32 0.32 0.32 0.35 0.37
0.26 0.25 0.25 0.24 0.23 0.21 0.19 0.17 0.17 0.14 0.13 0.15 0.15 0.17 0.17 0.17 0.17 0.16 0.16 0.14 0.14 0.14 0.12 0.12 0.15 0.20 0.25 0.22 0.19 0.19 0.20 0.21 0.22 0.23 0.24 0.25 0.27 0.28 0.30 0.31 0.33 0.34 0.37 0.39
0.26 0.26 0.27 0.26 0.25 0.23 0.23 0.22 0.20 0.17 0.17 0.18 0.19 0.20 0.20 0.20 0.19 0.18 0.20 0.20 0.19 0.17 0.14 0.14 0.17 0.22 0.25 0.22 0.22 0.21 0.19 0.19 0.22 0.23 0.23 0.24 0.26 0.27 0.29 0.30 0.31 0.33 0.35 0.39
0.27 0.28 0.29 0.29 0.28 0.27 0.28 0.28 0.27 0.24 0.23 0.23 0.24 0.25 0.24 0.23 0.24 0.23 0.22 0.21 0.22 0.20 0.17 0.17 0.20 0.22 0.20 0.20 0.22 0.23 0.24 0.24 0.26 0.28 0.27 0.27 0.28 0.30 0.31 0.30 0.31 0.33 0.36 0.41
0.27 0.29 0.31 0.31 0.30 0.29 0.29 0.29 0.30 0.30 0.29 0.27 0.26 0.26 0.26 0.26 0.26 0.28 0.29 0.29 0.28 0.28 0.26 0.24 0.23 0.23 0.21 0.23 0.24 0.25 0.25 0.28 0.31 0.32 0.30 0.31 0.32 0.35 0.37 0.37 0.37 0.38 0.40 0.44
0.26 0.28 0.27 0.28 0.29 0.28 0.28 0.29 0.32 0.33 0.33 0.34 0.33 0.30 0.29 0.30 0.31 0.32 0.33 0.36 0.38 0.38 0.37 0.35 0.32 0.31 0.30 0.29 0.28 0.30 0.30 0.29 0.29 0.29 0.30 0.33 0.36 0.37 0.39 0.42 0.45 0.47 0.48 0.49

GEFSNGP_prec_meanprecacc_222.txt.gz
Total_Precipitation_Accumulation
0.17 0.13 0.12 0.11 0.12 0.14 0.18 0.25 0.40 0.47 0.47 0.48 0.50 0.54 0.56 0.60 0.57 0.46 0.37 0.30 0.28 0.27 0.25 0.29 0.30 0.29 0.28 0.25 0.28 0.30 0.29 0.29 0.34 0.34 0.32 0.28 0.28 0.27 0.26 0.23 0.21 0.16 0.14 0.15
0.13 0.09 0.09 0.08 0.08 0.11 0.14 0.19 0.27 0.28 0.29 0.26 0.22 0.19 0.18 0.22 0.26 0.25 0.21 0.18 0.19 0.20 0.21 0.23 0.24 0.22 0.21 0.20 0.20 0.20 0.20 0.20 0.26 0.31 0.28 0.27 0.25 0.23 0.21 0.21 0.20 0.16 0.13 0.14
0.15 0.09 0.12 0.11 0.06 0.09 0.13 0.13 0.16 0.20 0.23 0.23 0.17 0.11 0.10 0.10 0.11 0.12 0.14 0.15 0.15 0.15 0.21 0.24 0.23 0.23 0.22 0.21 0.19 0.18 0.18 0.20 0.26 0.27 0.22 0.19 0.18 0.16 0.13 0.14 0.15 0.14 0.12 0.14
0.23 0.20 0.22 0.11 0.05 0.05 0.07 0.07 0.11 0.14 0.14 0.16 0.13 0.11 0.09 0.08 0.09 0.10 0.11 0.12 0.14 0.14 0.17 0.23 0.25 0.26 0.26 0.24 0.22 0.19 0.18 0.20 0.24 0.25 0.23 0.18 0.17 0.14 0.11 0.10 0.12 0.13 0.15 0.16
0.34 0.28 0.15 0.08 0.07 0.06 0.05 0.06 0.08 0.07 0.06 0.05 0.06 0.10 0.08 0.06 0.07 0.07 0.08 0.09 0.10 0.13 0.17 0.21 0.24 0.27 0.27 0.24 0.23 0.22 0.21 0.20 0.20 0.22 0.22 0.20 0.17 0.15 0.12 0.14 0.15 0.13 0.13 0.14
0.39 0.34 0.22 0.11 0.06 0.05 0.06 0.09 0.09 0.08 0.06 0.05 0.06 0.10 0.08 0.06 0.05 0.06 0.07 0.07 0.08 0.09 0.13 0.18 0.23 0.25 0.27 0.28 0.22 0.19 0.20 0.21 0.21 0.20 0.18 0.19 0.18 0.17 0.16 0.18 0.18 0.16 0.15 0.12
0.34 0.32 0.17 0.07 0.05 0.06 0.11 0.12 0.09 0.08 0.07 0.07 0.07 0.07 0.06 0.05 0.04 0.05 0.06 0.07 0.07 0.09 0.11 0.14 0.19 0.22 0.28 0.28 0.20 0.18 0.22 0.26 0.27 0.24 0.22 0.25 0.25 0.23 0.20 0.20 0.21 0.21 0.19 0.16
0.31 0.31 0.18 0.07 0.07 0.11 0.11 0.08 0.06 0.06 0.06 0.07 0.06 0.06 0.05 0.05 0.05 0.05 0.06 0.07 0.07 0.08 0.09 0.10 0.15 0.20 0.24 0.28 0.26 0.24 0.25 0.28 0.30 0.31 0.30 0.30 0.30 0.28 0.27 0.25 0.26 0.26 0.26 0.23
0.23 0.17 0.09 0.08 0.10 0.10 0.09 0.08 0.07 0.07 0.07 0.06 0.06 0.05 0.05 0.05 0.05 0.05 0.05 0.06 0.06 0.07 0.08 0.09 0.14 0.17 0.22 0.26 0.30 0.27 0.27 0.28 0.30 0.33 0.32 0.30 0.29 0.29 0.28 0.24 0.24 0.25 0.26 0.25
0.20 0.10 0.10 0.11 0.10 0.10 0.10 0.07 0.05 0.05 0.06 0.07 0.06 0.06 0.06 0.05 0.04 0.04 0.04 0.05 0.06 0.07 0.07 0.09 0.13 0.19 0.29 0.30 0.28 0.29 0.29 0.30 0.30 0.30 0.29 0.29 0.29 0.28 0.26 0.25 0.23 0.24 0.26 0.25
0.23 0.15 0.14 0.14 0.12 0.10 0.10 0.07 0.04 0.04 0.05 0.06 0.06 0.06 0.07 0.07 0.05 0.04 0.04 0.05 0.06 0.07 0.09 0.10 0.14 0.19 0.27 0.27 0.27 0.28 0.30 0.31 0.30 0.28 0.24 0.24 0.24 0.26 0.26 0.26 0.27 0.29 0.29 0.29
0.29 0.20 0.19 0.17 0.13 0.09 0.09 0.07 0.06 0.05 0.05 0.05 0.06 0.07 0.10 0.09 0.06 0.06 0.05 0.06 0.09 0.10 0.11 0.11 0.12 0.15 0.20 0.22 0.25 0.27 0.27 0.27 0.27 0.27 0.24 0.22 0.23 0.25 0.30 0.34 0.36 0.30 0.29 0.27
0.28 0.22 0.19 0.15 0.12 0.10 0.10 0.09 0.07 0.06 0.06 0.06 0.06 0.08 0.12 0.10 0.07 0.07 0.08 0.07 0.09 0.11 0.12 0.13 0.14 0.16 0.18 0.19 0.22 0.24 0.25 0.24 0.23 0.24 0.24 0.24 0.26 0.27 0.28 0.28 0.29 0.26 0.24 0.24
0.21 0.24 0.22 0.16 0.14 0.12 0.10 0.10 0.08 0.07 0.06 0.07 0.08 0.09 0.12 0.11 0.10 0.10 0.11 0.09 0.09 0.11 0.10 0.11 0.12 0.15 0.19 0.17 0.17 0.22 0.27 0.31 0.29 0.28 0.28 0.28 0.30 0.28 0.26 0.25 0.27 0.25 0.22 0.21
0.15 0.19 0.21 0.17 0.13 0.10 0.09 0.10 0.10 0.08 0.07 0.07 0.08 0.09 0.13 0.13 0.14 0.13 0.12 0.11 0.11 0.11 0.10 0.10 0.09 0.12 0.15 0.17 0.18 0.21 0.24 0.27 0.29 0.30 0.30 0.29 0.28 0.27 0.27 0.26 0.26 0.28 0.27 0.25
0.15 0.14 0.17 0.19 0.14 0.09 0.09 0.13 0.15 0.13 0.10 0.09 0.09 0.09 0.14 0.14 0.14 0.14 0.14 0.14 0.12 0.11 0.11 0.13 0.11 0.12 0.14 0.17 0.20 0.20 0.23 0.27 0.27 0.28 0.29 0.29 0.28 0.29 0.31 0.31 0.31 0.31 0.29 0.30
0.18 0.18 0.19 0.23 0.19 0.14 0.13 0.17 0.19 0.14 0.10 0.07 0.08 0.10 0.13 0.17 0.17 0.16 0.16 0.15 0.13 0.12 0.12 0.14 0.15 0.14 0.14 0.16 0.22 0.24 0.23 0.25 0.30 0.30 0.28 0.28 0.30 0.31 0.34 0.36 0.36 0.37 0.38 0.40
0.20 0.21 0.22 0.24 0.23 0.25 0.25 0.21 0.20 0.15 0.10 0.09 0.08 0.09 0.12 0.14 0.17 0.18 0.18 0.16 0.15 0.14 0.14 0.14 0.14 0.15 0.14 0.16 0.19 0.23 0.27 0.27 0.27 0.29 0.29 0.28 0.30 0.30 0.30 0.30 0.34 0.38 0.41 0.45
0.15 0.17 0.19 0.21 0.26 0.30 0.26 0.20 0.20 0.15 0.11 0.11 0.11 0.11 0.11 0.12 0.13 0.14 0.14 0.15 0.15 0.16 0.15 0.14 0.14 0.14 0.14 0.17 0.19 0.20 0.25 0.28 0.29 0.29 0.27 0.30 0.31 0.28 0.29 0.30 0.34 0.37 0.39 0.40
0.16 0.16 0.20 0.24 0.26 0.25 0.23 0.18 0.15 0.14 0.11 0.11 0.13 0.13 0.13 0.13 0.13 0.13 0.13 0.13 0.13 0.15 0.15 0.15 0.13 0.12 0.14 0.16 0.18 0.18 0.22 0.24 0.26 0.28 0.29 0.28 0.26 0.26 0.28 0.30 0.31 0.34 0.36 0.38
0.20 0.21 0.23 0.26 0.25 0.22 0.21 0.19 0.16 0.15 0.14 0.14 0.15 0.16 0.15 0.15 0.14 0.15 0.14 0.13 0.12 0.12 0.13 0.16 0.14 0.12 0.14 0.18 0.20 0.18 0.20 0.23 0.25 0.28 0.30 0.30 0.29 0.30 0.30 0.30 0.30 0.32 0.33 0.34
0.24 0.25 0.27 0.29 0.27 0.24 0.22 0.23 0.22 0.19 0.16 0.18 0.17 0.18 0.18 0.18 0.17 0.17 0.16 0.17 0.15 0.15 0.14 0.13 0.14 0.16 0.20 0.22 0.20 0.20 0.22 0.24 0.27 0.28 0.29 0.30 0.31 0.32 0.32 0.33 0.34 0.33 0.36 0.39
0.27 0.28 0.29 0.29 0.30 0.28 0.23 0.22 0.22 0.19 0.17 0.20 0.20 0.21 0.21 0.21 0.21 0.21 0.19 0.19 0.18 0.17 0.15 0.14 0.17 0.23 0.27 0.24 0.21 0.20 0.21 0.23 0.24 0.24 0.25 0.26 0.28 0.29 0.31 0.32 0.35 0.36 0.38 0.41
0.29 0.30 0.32 0.33 0.33 0.30 0.28 0.27 0.24 0.20 0.20 0.22 0.24 0.24 0.24 0.24 0.24 0.23 0.23 0.24 0.24 0.21 0.17 0.17 0.20 0.24 0.27 0.24 0.24 0.23 0.21 0.20 0.23 0.25 0.24 0.25 0.27 0.28 0.30 0.30 0.31 0.34 0.37 0.40
0.30 0.32 0.34 0.36 0.37 0.35 0.35 0.34 0.32 0.28 0.26 0.28 0.29 0.30 0.29 0.29 0.30 0.27 0.25 0.24 0.25 0.24 0.20 0.20 0.24 0.26 0.23 0.23 0.25 0.26 0.26 0.26 0.29 0.30 0.29 0.29 0.30 0.32 0.32 0.32 0.32 0.34 0.36 0.42
0.30 0.34 0.36 0.37 0.38 0.37 0.37 0.37 0.37 0.36 0.34 0.33 0.32 0.31 0.31 0.32 0.32 0.32 0.32 0.31 0.31 0.31 0.28 0.27 0.27 0.26 0.24 0.26 0.28 0.28 0.27 0.30 0.34 0.34 0.32 0.33 0.34 0.37 0.38 0.38 0.38 0.39 0.41 0.45
0.28 0.32 0.32 0.33 0.35 0.35 0.36 0.37 0.41 0.42 0.42 0.42 0.39 0.35 0.34 0.35 0.35 0.36 0.36 0.39 0.40 0.40 0.40 0.38 0.36 0.34 0.33 0.32 0.32 0.33 0.33 0.31 0.31 0.31 0.32 0.35 0.38 0.39 0.41 0.43 0.47 0.49 0.50 0.51

GEFSNGP_prec_meanprecacc_228.txt.gz
Total_Precipitation_Accumulation
0.18 0.13 0.12 0.12 0.12 0.14 0.18 0.25 0.40 0.47 0.47 0.48 0.50 0.54 0.56 0.60 0.57 0.46 0.37 0.30 0.28 0.27 0.26 0.29 0.30 0.30 0.28 0.26 0.28 0.30 0.30 0.30 0.36 0.36 0.33 0.29 0.30 0.29 0.28 0.27 0.24 0.19 0.16 0.18
0.13 0.10 0.09 0.08 0.08 0.11 0.14 0.19 0.27 0.28 0.29 0.26 0.22 0.19 0.18 0.22 0.26 0.25 0.21 0.19 0.20 0.20 0.21 0.24 0.24 0.22 0.22 0.21 0.21 0.21 0.21 0.21 0.27 0.32 0.30 0.30 0.28 0.26 0.25 0.25 0.23 0.19 0.16 0.16
0.15 0.09 0.12 0.11 0.06 0.09 0.13 0.13 0.16 0.20 0.23 0.23 0.17 0.11 0.10 0.10 0.11 0.12 0.14 0.16 0.15 0.16 0.21 0.25 0.24 0.25 0.24 0.22 0.20 0.19 0.20 0.22 0.27 0.28 0.24 0.22 0.21 0.19 0.17 0.19 0.19 0.19 0.16 0.17
0.25 0.21 0.22 0.11 0.05 0.05 0.07 0.07 0.11 0.14 0.14 0.16 0.13 0.11 0.09 0.08 0.09 0.10 0.11 0.12 0.14 0.15 0.17 0.24 0.26 0.28 0.28 0.26 0.23 0.20 0.20 0.21 0.24 0.25 0.24 0.20 0.19 0.17 0.14 0.14 0.17 0.18 0.22 0.22
0.36 0.29 0.15 0.08 0.07 0.06 0.05 0.06 0.08 0.08 0.06 0.05 0.06 0.10 0.08 0.06 0.07 0.08 0.08 0.09 0.11 0.13 0.18 0.22 0.26 0.30 0.31 0.27 0.25 0.23 0.22 0.20 0.21 0.22 0.23 0.22 0.19 0.17 0.15 0.17 0.18 0.16 0.18 0.21
0.40 0.36 0.22 0.11 0.06 0.05 0.06 0.09 0.09 0.08 0.06 0.05 0.06 0.10 0.08 0.06 0.05 0.06 0.07 0.07 0.08 0.10 0.14 0.20 0.27 0.30 0.31 0.32 0.24 0.20 0.20 0.21 0.21 0.20 0.19 0.21 0.19 0.19 0.18 0.20 0.21 0.20 0.19 0.17
0.36 0.33 0.18 0.07 0.05 0.06 0.11 0.12 0.09 0.08 0.07 0.07 0.07 0.07 0.06 0.05 0.04 0.05 0.06 0.07 0.07 0.09 0.11 0.17 0.26 0.29 0.33 0.33 0.23 0.20 0.23 0.26 0.27 0.25 0.23 0.26 0.26 0.24 0.22 0.22 0.25 0.25 0.23 0.20
0.33 0.33 0.20 0.07 0.07 0.11 0.12 0.08 0.06 0.06 0.06 0.07 0.06 0.06 0.05 0.05 0.05 0.06 0.07 0.07 0.07 0.08 0.09 0.12 0.21 0.28 0.31 0.33 0.30 0.27 0.27 0.29 0.31 0.32 0.31 0.31 0.31 0.30 0.29 0.28 0.30 0.31 0.31 0.28
0.25 0.19 0.11 0.08 0.10 0.11 0.09 0.08 0.07 0.07 0.07 0.06 0.06 0.06 0.05 0.05 0.05 0.05 0.06 0.06 0.07 0.08 0.08 0.11 0.18 0.23 0.27 0.31 0.34 0.31 0.31 0.31 0.33 0.35 0.34 0.32 0.31 0.32 0.31 0.28 0.28 0.30 0.32 0.31
0.21 0.12 0.11 0.11 0.10 0.10 0.10 0.08 0.06 0.05 0.06 0.07 0.06 0.07 0.06 0.05 0.04 0.04 0.05 0.05 0.06 0.07 0.08 0.10 0.17 0.23 0.33 0.35 0.32 0.33 0.34 0.35 0.35 0.33 0.32 0.31 0.31 0.30 0.29 0.28 0.27 0.28 0.32 0.31
0.25 0.17 0.15 0.15 0.12 0.10 0.10 0.07 0.05 0.04 0.05 0.06 0.06 0.06 0.07 0.07 0.05 0.05 0.05 0.06 0.07 0.08 0.10 0.12 0.17 0.23 0.31 0.31 0.31 0.33 0.35 0.36 0.35 0.33 0.29 0.29 0.28 0.28 0.28 0.27 0.29 0.32 0.34 0.36
0.31 0.21 0.20 0.18 0.13 0.10 0.09 0.08 0.06 0.05 0.05 0.05 0.06 0.08 0.10 0.09 0.07 0.06 0.06 0.07 0.10 0.11 0.12 0.13 0.16 0.18 0.23 0.26 0.28 0.30 0.32 0.32 0.31 0.33 0.30 0.27 0.26 0.28 0.32 0.35 0.37 0.31 0.32 0.33
0.29 0.23 0.19 0.16 0.13 0.11 0.11 0.10 0.08 0.07 0.07 0.07 0.07 0.08 0.12 0.11 0.08 0.08 0.09 0.09 0.11 0.13 0.13 0.15 0.18 0.20 0.22 0.23 0.25 0.28 0.29 0.27 0.27 0.29 0.30 0.29 0.30 0.30 0.30 0.30 0.30 0.27 0.25 0.26
0.21 0.24 0.23 0.17 0.15 0.12 0.11 0.10 0.09 0.07 0.06 0.07 0.08 0.10 0.12 0.12 0.11 0.11 0.12 0.11 0.12 0.15 0.13 0.14 0.16 0.20 0.23 0.22 0.21 0.26 0.32 0.37 0.34 0.31 0.33 0.34 0.35 0.32 0.29 0.28 0.28 0.26 0.23 0.23
0.15 0.19 0.22 0.18 0.13 0.10 0.09 0.11 0.11 0.09 0.08 0.08 0.08 0.10 0.14 0.14 0.14 0.14 0.13 0.12 0.13 0.15 0.15 0.13 0.13 0.16 0.21 0.22 0.22 0.26 0.31 0.33 0.33 0.34 0.35 0.35 0.34 0.31 0.30 0.27 0.27 0.29 0.28 0.27
0.15 0.14 0.17 0.19 0.14 0.09 0.09 0.13 0.16 0.13 0.10 0.09 0.09 0.10 0.15 0.15 0.14 0.15 0.14 0.14 0.14 0.14 0.15 0.17 0.16 0.16 0.18 0.21 0.23 0.25 0.30 0.33 0.32 0.32 0.33 0.34 0.33 0.31 0.33 0.32 0.32 0.32 0.30 0.32
0.19 0.18 0.20 0.23 0.20 0.14 0.14 0.17 0.19 0.15 0.11 0.08 0.09 0.11 0.14 0.18 0.18 0.17 0.16 0.16 0.14 0.14 0.15 0.17 0.18 0.19 0.19 0.20 0.26 0.28 0.27 0.30 0.34 0.34 0.33 0.32 0.34 0.33 0.35 0.36 0.37 0.37 0.39 0.42
0.21 0.21 0.23 0.25 0.24 0.25 0.25 0.21 0.21 0.16 0.11 0.10 0.09 0.10 0.13 0.15 0.18 0.19 0.19 0.18 0.16 0.16 0.17 0.17 0.16 0.18 0.18 0.20 0.23 0.27 0.31 0.30 0.31 0.32 0.33 0.33 0.33 0.31 0.31 0.31 0.35 0.39 0.42 0.46
0.15 0.17 0.19 0.22 0.26 0.31 0.27 0.22 0.21 0.17 0.11 0.12 0.12 0.12 0.13 0.13 0.14 0.15 0.17 0.19 0.18 0.18 0.17 0.17 0.17 0.17 0.17 0.21 0.22 0.24 0.29 0.31 0.32 0.31 0.30 0.33 0.33 0.30 0.31 0.32 0.35 0.39 0.40 0.41
0.16 0.16 0.20 0.24 0.26 0.26 0.25 0.20 0.16 0.15 0.12 0.12 0.14 0.14 0.14 0.14 0.14 0.15 0.16 0.18 0.18 0.17 0.18 0.18 0.16 0.15 0.17 0.20 0.21 0.21 0.26 0.28 0.29 0.30 0.30 0.30 0.28 0.28 0.29 0.31 0.32 0.35 0.37 0.39
0.20 0.21 0.23 0.27 0.26 0.24 0.24 0.22 0.18 0.17 0.15 0.16 0.16 0.18 0.17 0.16 0.16 0.17 0.17 0.16 0.16 0.15 0.15 0.19 0.16 0.14 0.16 0.21 0.24 0.21 0.24 0.27 0.27 0.30 0.31 0.31 0.31 0.31 0.31 0.31 0.31 0.32 0.34 0.35
0.24 0.25 0.27 0.30 0.30 0.27 0.24 0.24 0.25 0.22 0.18 0.19 0.18 0.20 0.20 0.20 0.19 0.19 0.18 0.19 0.19 0.18 0.16 0.16 0.15 0.18 0.22 0.25 0.23 0.24 0.26 0.27 0.29 0.30 0.30 0.31 0.32 0.33 0.33 0.34 0.34 0.34 0.37 0.40
0.28 0.29 0.29 0.31 0.33 0.32 0.26 0.24 0.24 0.21 0.20 0.22 0.21 0.22 0.23 0.23 0.22 0.23 0.22 0.21 0.20 0.21 0.18 0.17 0.20 0.25 0.30 0.27 0.25 0.25 0.25 0.25 0.25 0.25 0.26 0.28 0.29 0.30 0.32 0.33 0.35 0.36 0.38 0.42
0.30 0.31 0.33 0.35 0.36 0.34 0.32 0.29 0.26 0.22 0.22 0.25 0.26 0.26 0.26 0.27 0.27 0.25 0.26 0.27 0.27 0.25 0.22 0.22 0.24 0.28 0.31 0.28 0.29 0.27 0.23 0.22 0.25 0.26 0.25 0.26 0.28 0.29 0.31 0.31 0.32 0.35 0.37 0.41
0.33 0.34 0.36 0.38 0.39 0.38 0.39 0.37 0.34 0.30 0.28 0.30 0.31 0.32 0.31 0.32 0.34 0.31 0.29 0.29 0.31 0.30 0.25 0.26 0.29 0.30 0.27 0.28 0.30 0.29 0.28 0.28 0.30 0.32 0.31 0.30 0.31 0.33 0.33 0.33 0.33 0.35 0.38 0.43
0.32 0.36 0.38 0.40 0.41 0.40 0.41 0.41 0.41 0.39 0.36 0.36 0.35 0.34 0.34 0.35 0.36 0.36 0.36 0.36 0.36 0.36 0.33 0.33 0.33 0.32 0.29 0.32 0.34 0.32 0.30 0.32 0.36 0.36 0.34 0.35 0.36 0.39 0.40 0.40 0.40 0.41 0.43 0.47
0.30 0.34 0.35 0.36 0.38 0.39 0.41 0.43 0.48 0.47 0.46 0.45 0.43 0.40 0.39 0.42 0.42 0.40 0.40 0.43 0.44 0.44 0.44 0.43 0.41 0.39 0.39 0.40 0.40 0.39 0.36 0.34 0.34 0.34 0.35 0.38 0.41 0.43 0.44 0.47 0.50 0.52 0.53 0.54

GEFSNGP_prec_meanprecacc_234.txt.gz
Total_Precipitation_Accumulation
0.20 0.15 0.13 0.12 0.13 0.15 0.19 0.26 0.41 0.48 0.48 0.49 0.51 0.54 0.57 0.60 0.58 0.47 0.38 0.31 0.28 0.28 0.26 0.30 0.30 0.30 0.28 0.26 0.29 0.32 0.31 0.32 0.37 0.37 0.35 0.31 0.32 0.31 0.30 0.30 0.28 0.23 0.21 0.23
0.15 0.12 0.11 0.09 0.08 0.12 0.15 0.20 0.28 0.29 0.29 0.26 0.23 0.19 0.19 0.22 0.27 0.25 0.22 0.19 0.20 0.21 0.22 0.24 0.25 0.23 0.22 0.21 0.22 0.22 0.22 0.22 0.29 0.34 0.33 0.32 0.30 0.28 0.27 0.28 0.26 0.23 0.21 0.21
0.17 0.11 0.15 0.13 0.07 0.09 0.14 0.13 0.16 0.21 0.24 0.23 0.18 0.12 0.10 0.11 0.11 0.12 0.14 0.16 0.16 0.16 0.22 0.25 0.25 0.25 0.25 0.23 0.20 0.20 0.21 0.23 0.28 0.29 0.25 0.24 0.24 0.21 0.18 0.21 0.22 0.22 0.20 0.20
0.26 0.23 0.25 0.12 0.06 0.05 0.07 0.08 0.12 0.14 0.15 0.16 0.13 0.11 0.10 0.08 0.09 0.10 0.11 0.12 0.14 0.15 0.18 0.25 0.27 0.28 0.29 0.27 0.24 0.20 0.21 0.22 0.25 0.26 0.25 0.22 0.21 0.18 0.15 0.16 0.19 0.21 0.25 0.25
0.37 0.30 0.17 0.09 0.07 0.06 0.05 0.06 0.08 0.08 0.07 0.06 0.07 0.10 0.08 0.06 0.07 0.08 0.08 0.09 0.11 0.13 0.18 0.23 0.27 0.31 0.32 0.28 0.26 0.24 0.23 0.21 0.22 0.23 0.25 0.24 0.20 0.19 0.17 0.19 0.21 0.19 0.21 0.24
0.42 0.37 0.24 0.12 0.06 0.05 0.06 0.09 0.09 0.08 0.06 0.05 0.07 0.10 0.08 0.06 0.05 0.06 0.07 0.07 0.08 0.10 0.14 0.20 0.27 0.31 0.33 0.33 0.26 0.22 0.22 0.23 0.23 0.21 0.20 0.23 0.22 0.21 0.20 0.22 0.24 0.23 0.22 0.20
0.38 0.35 0.19 0.08 0.06 0.06 0.12 0.12 0.09 0.08 0.07 0.07 0.07 0.07 0.07 0.05 0.04 0.05 0.06 0.07 0.07 0.09 0.12 0.17 0.26 0.30 0.35 0.35 0.25 0.22 0.25 0.28 0.29 0.26 0.24 0.28 0.29 0.27 0.25 0.25 0.27 0.27 0.25 0.22
0.35 0.36 0.22 0.08 0.09 0.12 0.12 0.08 0.07 0.07 0.07 0.07 0.06 0.06 0.05 0.05 0.05 0.06 0.07 0.07 0.07 0.08 0.10 0.13 0.22 0.30 0.34 0.36 0.32 0.29 0.29 0.31 0.33 0.33 0.33 0.33 0.34 0.34 0.33 0.32 0.32 0.34 0.34 0.31
0.27 0.21 0.13 0.09 0.12 0.12 0.09 0.09 0.07 0.07 0.07 0.07 0.06 0.06 0.05 0.05 0.05 0.05 0.06 0.06 0.07 0.08 0.09 0.11 0.19 0.25 0.30 0.34 0.37 0.33 0.33 0.33 0.34 0.36 0.36 0.35 0.35 0.36 0.36 0.33 0.32 0.33 0.35 0.35
0.24 0.14 0.12 0.12 0.11 0.11 0.11 0.08 0.06 0.06 0.07 0.07 0.07 0.07 0.06 0.05 0.04 0.04 0.05 0.05 0.07 0.07 0.08 0.11 0.19 0.26 0.37 0.39 0.35 0.36 0.36 0.37 0.36 0.35 0.34 0.34 0.34 0.34 0.32 0.32 0.31 0.32 0.35 0.35
0.28 0.20 0.17 0.17 0.14 0.11 0.11 0.08 0.05 0.04 0.05 0.07 0.07 0.06 0.08 0.08 0.06 0.05 0.05 0.06 0.08 0.08 0.10 0.13 0.18 0.26 0.36 0.37 0.36 0.37 0.38 0.38 0.37 0.34 0.31 0.31 0.31 0.31 0.31 0.30 0.33 0.35 0.37 0.40
0.37 0.25 0.23 0.21 0.15 0.11 0.10 0.08 0.06 0.05 0.05 0.06 0.06 0.08 0.10 0.09 0.07 0.07 0.06 0.08 0.10 0.12 0.13 0.14 0.17 0.22 0.29 0.34 0.35 0.37 0.37 0.36 0.33 0.34 0.32 0.29 0.29 0.31 0.36 0.38 0.40 0.35 0.35 0.36
0.36 0.28 0.23 0.19 0.15 0.12 0.11 0.10 0.08 0.07 0.07 0.07 0.07 0.08 0.12 0.11 0.08 0.08 0.09 0.09 0.11 0.14 0.14 0.16 0.20 0.23 0.26 0.30 0.33 0.36 0.36 0.33 0.32 0.34 0.34 0.32 0.32 0.33 0.34 0.33 0.33 0.30 0.29 0.29
0.26 0.28 0.26 0.20 0.17 0.14 0.12 0.11 0.09 0.07 0.07 0.07 0.08 0.10 0.12 0.12 0.11 0.11 0.12 0.11 0.12 0.15 0.14 0.15 0.18 0.23 0.28 0.28 0.29 0.35 0.42 0.45 0.42 0.38 0.37 0.38 0.38 0.35 0.33 0.32 0.33 0.31 0.27 0.26
0.18 0.22 0.24 0.20 0.15 0.12 0.11 0.11 0.11 0.09 0.08 0.08 0.09 0.11 0.15 0.14 0.15 0.14 0.13 0.13 0.14 0.15 0.15 0.15 0.16 0.19 0.25 0.27 0.29 0.33 0.38 0.40 0.41 0.40 0.40 0.40 0.38 0.35 0.32 0.30 0.31 0.33 0.32 0.31
0.17 0.15 0.18 0.21 0.16 0.11 0.11 0.14 0.16 0.14 0.10 0.10 0.10 0.10 0.15 0.16 0.15 0.15 0.15 0.15 0.14 0.15 0.16 0.18 0.18 0.19 0.22 0.25 0.29 0.32 0.36 0.41 0.41 0.38 0.36 0.37 0.37 0.36 0.37 0.35 0.35 0.35 0.32 0.34
0.19 0.19 0.21 0.24 0.21 0.15 0.14 0.17 0.20 0.16 0.11 0.09 0.10 0.11 0.15 0.19 0.19 0.18 0.17 0.17 0.15 0.15 0.16 0.17 0.20 0.22 0.24 0.27 0.33 0.34 0.34 0.37 0.40 0.39 0.37 0.35 0.37 0.37 0.41 0.41 0.40 0.40 0.41 0.44
0.21 0.21 0.23 0.25 0.24 0.26 0.26 0.22 0.21 0.16 0.11 0.10 0.10 0.11 0.14 0.17 0.20 0.20 0.20 0.19 0.17 0.17 0.18 0.18 0.19 0.22 0.23 0.28 0.32 0.36 0.38 0.35 0.35 0.36 0.37 0.36 0.36 0.35 0.35 0.36 0.38 0.41 0.44 0.48
0.16 0.17 0.20 0.22 0.27 0.32 0.28 0.22 0.22 0.17 0.12 0.13 0.14 0.13 0.13 0.14 0.16 0.17 0.18 0.20 0.20 0.19 0.19 0.19 0.21 0.22 0.24 0.29 0.32 0.34 0.38 0.37 0.37 0.35 0.34 0.37 0.37 0.34 0.35 0.36 0.38 0.40 0.42 0.42
0.16 0.16 0.21 0.24 0.26 0.26 0.26 0.21 0.17 0.15 0.12 0.13 0.15 0.15 0.15 0.16 0.16 0.16 0.17 0.19 0.19 0.20 0.21 0.22 0.21 0.21 0.26 0.27 0.28 0.26 0.33 0.34 0.33 0.33 0.34 0.34 0.32 0.32 0.34 0.34 0.34 0.37 0.39 0.40
0.20 0.21 0.23 0.27 0.27 0.24 0.25 0.24 0.19 0.18 0.16 0.17 0.17 0.18 0.18 0.18 0.17 0.18 0.18 0.17 0.17 0.16 0.18 0.24 0.22 0.22 0.25 0.28 0.28 0.25 0.28 0.31 0.31 0.33 0.35 0.35 0.36 0.36 0.35 0.35 0.34 0.35 0.36 0.37
0.24 0.25 0.27 0.30 0.30 0.27 0.25 0.27 0.27 0.23 0.19 0.20 0.19 0.21 0.22 0.22 0.20 0.20 0.19 0.20 0.20 0.20 0.19 0.21 0.22 0.26 0.30 0.31 0.26 0.27 0.29 0.29 0.31 0.33 0.33 0.34 0.36 0.36 0.36 0.37 0.37 0.37 0.39 0.42
0.29 0.29 0.30 0.31 0.34 0.32 0.27 0.25 0.26 0.23 0.22 0.23 0.23 0.24 0.26 0.26 0.25 0.24 0.23 0.22 0.22 0.23 0.22 0.22 0.26 0.31 0.35 0.31 0.28 0.28 0.27 0.27 0.27 0.28 0.28 0.30 0.31 0.32 0.33 0.34 0.37 0.38 0.40 0.43
0.31 0.32 0.34 0.35 0.37 0.34 0.32 0.30 0.27 0.25 0.25 0.27 0.27 0.27 0.28 0.30 0.30 0.27 0.28 0.31 0.31 0.29 0.26 0.26 0.28 0.32 0.35 0.31 0.32 0.31 0.26 0.25 0.27 0.27 0.27 0.28 0.30 0.31 0.32 0.33 0.33 0.36 0.39 0.44
0.35 0.35 0.37 0.39 0.41 0.40 0.41 0.39 0.36 0.32 0.31 0.32 0.33 0.33 0.32 0.35 0.39 0.37 0.35 0.34 0.36 0.35 0.29 0.30 0.33 0.34 0.31 0.31 0.34 0.33 0.32 0.32 0.33 0.34 0.32 0.32 0.32 0.34 0.35 0.34 0.35 0.37 0.39 0.45
0.35 0.38 0.41 0.43 0.44 0.43 0.44 0.44 0.43 0.41 0.39 0.39 0.37 0.36 0.36 0.37 0.41 0.42 0.43 0.42 0.42 0.41 0.37 0.36 0.36 0.35 0.35 0.38 0.40 0.38 0.35 0.36 0.39 0.39 0.36 0.37 0.38 0.40 0.42 0.42 0.42 0.42 0.44 0.49
0.30 0.35 0.36 0.38 0.40 0.41 0.42 0.45 0.49 0.49 0.48 0.48 0.46 0.42 0.42 0.44 0.46 0.45 0.45 0.49 0.50 0.49 0.47 0.47 0.46 0.45 0.45 0.46 0.46 0.45 0.42 0.39 0.38 0.37 0.38 0.41 0.44 0.45 0.46 0.49 0.53 0.54 0.55 0.56

GEFSNGP_prec_meanprecacc_240.txt.gz
Total_Precipitation_Accumulation
0.21 0.15 0.13 0.13 0.14 0.15 0.20 0.27 0.43 0.49 0.48 0.49 0.52 0.55 0.57 0.61 0.58 0.47 0.38 0.31 0.29 0.28 0.26 0.30 0.31 0.31 0.29 0.27 0.30 0.32 0.32 0.34 0.39 0.39 0.38 0.34 0.34 0.33 0.32 0.33 0.31 0.26 0.23 0.25
0.16 0.12 0.11 0.10 0.09 0.12 0.16 0.20 0.29 0.30 0.30 0.27 0.24 0.20 0.20 0.23 0.27 0.25 0.22 0.20 0.21 0.21 0.22 0.25 0.25 0.24 0.23 0.22 0.22 0.23 0.22 0.23 0.30 0.36 0.36 0.36 0.32 0.29 0.29 0.30 0.29 0.26 0.22 0.23
0.17 0.11 0.15 0.13 0.07 0.09 0.14 0.14 0.17 0.22 0.25 0.24 0.18 0.13 0.11 0.11 0.11 0.12 0.14 0.16 0.16 0.17 0.22 0.26 0.25 0.26 0.25 0.24 0.21 0.20 0.21 0.23 0.29 0.30 0.27 0.28 0.28 0.24 0.20 0.22 0.23 0.23 0.22 0.22
0.27 0.23 0.26 0.13 0.06 0.06 0.07 0.08 0.12 0.15 0.16 0.17 0.14 0.12 0.11 0.09 0.09 0.10 0.11 0.12 0.14 0.15 0.18 0.25 0.27 0.29 0.29 0.27 0.25 0.22 0.22 0.23 0.26 0.27 0.26 0.24 0.24 0.21 0.18 0.19 0.21 0.22 0.27 0.27
0.39 0.32 0.17 0.09 0.07 0.07 0.06 0.06 0.09 0.08 0.07 0.07 0.08 0.11 0.09 0.07 0.07 0.08 0.08 0.09 0.11 0.14 0.18 0.24 0.27 0.32 0.33 0.29 0.27 0.26 0.25 0.23 0.23 0.24 0.25 0.25 0.21 0.20 0.18 0.22 0.23 0.22 0.23 0.25
0.45 0.40 0.25 0.12 0.07 0.06 0.07 0.10 0.10 0.08 0.07 0.06 0.07 0.11 0.09 0.07 0.05 0.06 0.07 0.07 0.08 0.10 0.14 0.20 0.28 0.32 0.34 0.34 0.28 0.24 0.24 0.25 0.25 0.23 0.21 0.23 0.22 0.22 0.21 0.24 0.26 0.25 0.24 0.22
0.41 0.38 0.20 0.09 0.07 0.08 0.14 0.14 0.10 0.09 0.08 0.08 0.08 0.08 0.07 0.05 0.04 0.05 0.07 0.07 0.07 0.10 0.12 0.17 0.27 0.30 0.36 0.36 0.26 0.24 0.28 0.31 0.31 0.28 0.26 0.29 0.30 0.28 0.26 0.26 0.29 0.28 0.26 0.24
0.37 0.38 0.23 0.08 0.10 0.14 0.16 0.10 0.08 0.08 0.07 0.08 0.07 0.06 0.06 0.05 0.05 0.06 0.07 0.08 0.07 0.09 0.10 0.13 0.22 0.30 0.34 0.36 0.34 0.31 0.31 0.34 0.35 0.35 0.34 0.35 0.35 0.36 0.35 0.33 0.34 0.35 0.35 0.33
0.30 0.23 0.14 0.10 0.13 0.14 0.12 0.11 0.08 0.08 0.08 0.08 0.07 0.06 0.05 0.06 0.05 0.05 0.06 0.06 0.07 0.08 0.09 0.12 0.20 0.26 0.31 0.35 0.38 0.35 0.35 0.35 0.36 0.38 0.37 0.36 0.36 0.38 0.38 0.34 0.33 0.35 0.37 0.37
0.27 0.16 0.14 0.14 0.13 0.14 0.13 0.10 0.07 0.07 0.07 0.08 0.07 0.07 0.07 0.06 0.05 0.05 0.05 0.06 0.07 0.08 0.08 0.11 0.19 0.26 0.38 0.40 0.36 0.37 0.38 0.39 0.38 0.37 0.37 0.36 0.36 0.36 0.34 0.34 0.32 0.33 0.37 0.37
0.31 0.23 0.20 0.20 0.18 0.15 0.14 0.10 0.07 0.05 0.06 0.07 0.07 0.07 0.08 0.08 0.06 0.05 0.05 0.06 0.08 0.09 0.10 0.13 0.19 0.26 0.37 0.37 0.37 0.38 0.40 0.40 0.39 0.36 0.33 0.33 0.33 0.33 0.33 0.31 0.34 0.37 0.39 0.41
0.41 0.29 0.27 0.24 0.18 0.15 0.14 0.11 0.08 0.06 0.06 0.06 0.06 0.08 0.10 0.10 0.08 0.07 0.06 0.08 0.11 0.12 0.13 0.14 0.18 0.23 0.30 0.35 0.36 0.38 0.38 0.37 0.36 0.37 0.34 0.31 0.31 0.33 0.37 0.40 0.42 0.36 0.37 0.38
0.39 0.31 0.25 0.20 0.16 0.15 0.14 0.13 0.09 0.07 0.07 0.07 0.07 0.08 0.12 0.11 0.09 0.09 0.09 0.09 0.11 0.14 0.14 0.17 0.20 0.24 0.28 0.32 0.36 0.38 0.38 0.35 0.35 0.37 0.36 0.34 0.34 0.35 0.36 0.35 0.34 0.31 0.30 0.31
0.27 0.29 0.27 0.21 0.18 0.15 0.13 0.12 0.10 0.08 0.07 0.08 0.09 0.10 0.13 0.12 0.11 0.11 0.12 0.12 0.13 0.16 0.14 0.15 0.18 0.24 0.30 0.31 0.33 0.40 0.47 0.50 0.45 0.40 0.40 0.41 0.41 0.38 0.35 0.35 0.35 0.32 0.28 0.27
0.19 0.23 0.25 0.21 0.16 0.13 0.12 0.12 0.12 0.10 0.08 0.09 0.09 0.11 0.15 0.14 0.15 0.14 0.13 0.13 0.14 0.15 0.15 0.15 0.16 0.20 0.26 0.29 0.32 0.37 0.44 0.48 0.49 0.47 0.45 0.43 0.41 0.38 0.36 0.34 0.34 0.35 0.34 0.32
0.18 0.17 0.19 0.21 0.17 0.11 0.12 0.14 0.16 0.14 0.11 0.10 0.11 0.11 0.15 0.16 0.15 0.15 0.15 0.15 0.15 0.16 0.16 0.19 0.19 0.20 0.23 0.27 0.31 0.34 0.38 0.44 0.47 0.45 0.45 0.46 0.43 0.40 0.41 0.39 0.39 0.39 0.35 0.36
0.21 0.20 0.22 0.26 0.22 0.17 0.17 0.19 0.20 0.17 0.12 0.09 0.10 0.12 0.15 0.19 0.19 0.18 0.18 0.17 0.16 0.16 0.17 0.18 0.21 0.22 0.24 0.28 0.35 0.37 0.36 0.39 0.43 0.43 0.41 0.43 0.46 0.46 0.48 0.46 0.44 0.44 0.44 0.46
0.23 0.23 0.24 0.26 0.26 0.28 0.29 0.25 0.22 0.17 0.12 0.11 0.10 0.12 0.14 0.17 0.21 0.21 0.21 0.20 0.18 0.17 0.18 0.18 0.19 0.23 0.24 0.29 0.34 0.38 0.40 0.38 0.38 0.39 0.40 0.39 0.41 0.41 0.43 0.43 0.43 0.45 0.47 0.50
0.16 0.18 0.20 0.23 0.27 0.33 0.31 0.27 0.24 0.17 0.12 0.13 0.14 0.13 0.14 0.15 0.17 0.17 0.19 0.21 0.20 0.20 0.19 0.20 0.22 0.23 0.25 0.30 0.34 0.36 0.41 0.41 0.40 0.39 0.37 0.40 0.39 0.37 0.39 0.40 0.43 0.44 0.45 0.45
0.16 0.17 0.22 0.25 0.27 0.27 0.29 0.26 0.19 0.16 0.13 0.14 0.16 0.15 0.15 0.16 0.16 0.17 0.18 0.19 0.20 0.20 0.21 0.23 0.22 0.22 0.27 0.28 0.30 0.29 0.36 0.39 0.38 0.38 0.38 0.37 0.35 0.34 0.36 0.37 0.37 0.39 0.41 0.43
0.20 0.22 0.24 0.28 0.27 0.25 0.27 0.27 0.21 0.18 0.16 0.17 0.18 0.19 0.18 0.19 0.18 0.19 0.19 0.17 0.17 0.17 0.19 0.25 0.23 0.23 0.27 0.31 0.32 0.29 0.31 0.35 0.36 0.38 0.39 0.39 0.38 0.38 0.37 0.37 0.36 0.37 0.38 0.39
0.25 0.26 0.28 0.31 0.30 0.28 0.27 0.31 0.30 0.24 0.20 0.20 0.20 0.21 0.22 0.23 0.21 0.20 0.20 0.21 0.21 0.21 0.20 0.22 0.23 0.28 0.34 0.36 0.30 0.31 0.32 0.32 0.35 0.37 0.38 0.39 0.39 0.39 0.38 0.39 0.40 0.39 0.40 0.44
0.29 0.29 0.30 0.32 0.35 0.33 0.29 0.30 0.31 0.25 0.23 0.24 0.24 0.25 0.26 0.27 0.26 0.26 0.24 0.23 0.23 0.24 0.23 0.23 0.28 0.35 0.41 0.36 0.31 0.31 0.31 0.31 0.31 0.31 0.32 0.34 0.35 0.37 0.39 0.39 0.40 0.40 0.41 0.45
0.31 0.32 0.34 0.36 0.38 0.36 0.34 0.34 0.32 0.28 0.27 0.28 0.28 0.28 0.29 0.31 0.31 0.29 0.30 0.32 0.33 0.31 0.27 0.28 0.31 0.37 0.41 0.35 0.35 0.34 0.30 0.29 0.31 0.31 0.30 0.30 0.34 0.37 0.38 0.38 0.37 0.39 0.41 0.45
0.36 0.35 0.37 0.39 0.41 0.41 0.43 0.41 0.39 0.35 0.34 0.34 0.34 0.33 0.33 0.37 0.42 0.40 0.37 0.37 0.39 0.38 0.32 0.32 0.37 0.38 0.35 0.35 0.36 0.36 0.36 0.36 0.37 0.37 0.35 0.34 0.36 0.37 0.37 0.37 0.38 0.39 0.42 0.48
0.36 0.39 0.41 0.43 0.45 0.44 0.45 0.45 0.45 0.43 0.41 0.41 0.39 0.38 0.38 0.40 0.44 0.46 0.46 0.45 0.45 0.45 0.39 0.39 0.40 0.40 0.39 0.41 0.42 0.40 0.39 0.41 0.43 0.41 0.40 0.40 0.40 0.42 0.44 0.45 0.45 0.45 0.47 0.51
0.31 0.35 0.36 0.38 0.40 0.42 0.43 0.46 0.50 0.50 0.49 0.50 0.48 0.45 0.44 0.47 0.49 0.48 0.48 0.51 0.53 0.51 0.51 0.52 0.51 0.52 0.52 0.52 0.52 0.50 0.47 0.43 0.42 0.41 0.41 0.44 0.46 0.47 0.48 0.51 0.55 0.57 0.57 0.58

GEFSNGP_prec_meanprecacc_246.txt.gz
Total_Precipitation_Accumulation
0.21 0.16 0.14 0.14 0.14 0.15 0.20 0.27 0.43 0.49 0.48 0.49 0.53 0.56 0.58 0.62 0.60 0.50 0.40 0.32 0.29 0.28 0.26 0.31 0.32 0.31 0.30 0.27 0.30 0.33 0.32 0.34 0.39 0.40 0.39 0.35 0.36 0.35 0.35 0.35 0.33 0.29 0.26 0.28
0.16 0.13 0.12 0.10 0.09 0.12 0.16 0.20 0.29 0.30 0.30 0.27 0.25 0.22 0.21 0.24 0.29 0.26 0.23 0.21 0.21 0.22 0.23 0.26 0.26 0.24 0.24 0.23 0.22 0.23 0.23 0.23 0.30 0.36 0.37 0.38 0.34 0.31 0.30 0.31 0.30 0.28 0.25 0.25
0.17 0.12 0.16 0.14 0.08 0.10 0.14 0.14 0.17 0.22 0.25 0.25 0.19 0.15 0.13 0.12 0.13 0.14 0.16 0.17 0.17 0.18 0.23 0.27 0.26 0.26 0.26 0.24 0.21 0.20 0.21 0.24 0.29 0.31 0.28 0.31 0.31 0.26 0.22 0.24 0.25 0.25 0.25 0.25
0.27 0.24 0.27 0.13 0.06 0.06 0.08 0.09 0.12 0.15 0.16 0.17 0.15 0.14 0.13 0.11 0.11 0.12 0.12 0.14 0.16 0.16 0.19 0.25 0.28 0.29 0.30 0.28 0.25 0.23 0.22 0.24 0.27 0.27 0.27 0.25 0.26 0.23 0.19 0.21 0.23 0.24 0.30 0.30
0.40 0.32 0.18 0.09 0.08 0.07 0.06 0.07 0.09 0.09 0.08 0.07 0.09 0.12 0.11 0.09 0.08 0.09 0.09 0.10 0.11 0.14 0.19 0.24 0.27 0.32 0.33 0.29 0.28 0.27 0.25 0.24 0.24 0.24 0.26 0.25 0.22 0.20 0.19 0.22 0.24 0.24 0.25 0.27
0.47 0.41 0.25 0.12 0.07 0.07 0.07 0.11 0.11 0.09 0.08 0.07 0.09 0.13 0.10 0.08 0.07 0.07 0.08 0.08 0.09 0.10 0.15 0.21 0.28 0.32 0.34 0.35 0.29 0.26 0.26 0.26 0.26 0.23 0.22 0.24 0.23 0.22 0.21 0.24 0.26 0.26 0.25 0.23
0.42 0.39 0.20 0.09 0.07 0.09 0.15 0.16 0.12 0.11 0.10 0.10 0.10 0.10 0.09 0.07 0.05 0.06 0.07 0.07 0.08 0.10 0.12 0.17 0.27 0.31 0.37 0.37 0.27 0.25 0.29 0.32 0.33 0.29 0.27 0.30 0.31 0.29 0.27 0.27 0.29 0.29 0.27 0.25
0.38 0.40 0.25 0.10 0.12 0.17 0.19 0.12 0.09 0.09 0.09 0.09 0.09 0.08 0.06 0.06 0.06 0.07 0.08 0.08 0.08 0.09 0.11 0.13 0.23 0.31 0.35 0.37 0.35 0.33 0.33 0.35 0.36 0.36 0.35 0.36 0.37 0.37 0.36 0.34 0.35 0.36 0.36 0.33
0.32 0.25 0.16 0.12 0.16 0.17 0.15 0.13 0.10 0.09 0.09 0.09 0.08 0.07 0.06 0.06 0.06 0.06 0.08 0.08 0.08 0.09 0.10 0.13 0.20 0.27 0.32 0.36 0.39 0.36 0.36 0.36 0.37 0.39 0.39 0.38 0.39 0.40 0.40 0.36 0.34 0.36 0.38 0.38
0.30 0.18 0.16 0.17 0.16 0.17 0.16 0.12 0.09 0.08 0.08 0.09 0.08 0.08 0.07 0.06 0.06 0.06 0.08 0.09 0.09 0.10 0.10 0.12 0.19 0.27 0.38 0.40 0.37 0.38 0.38 0.40 0.39 0.38 0.38 0.38 0.38 0.38 0.36 0.35 0.33 0.34 0.38 0.38
0.35 0.25 0.23 0.22 0.20 0.18 0.16 0.11 0.08 0.06 0.06 0.08 0.08 0.07 0.08 0.08 0.06 0.06 0.07 0.09 0.11 0.11 0.12 0.14 0.19 0.27 0.37 0.38 0.37 0.39 0.40 0.40 0.39 0.37 0.34 0.34 0.35 0.35 0.35 0.33 0.36 0.38 0.40 0.43
0.45 0.31 0.30 0.26 0.20 0.17 0.16 0.13 0.08 0.06 0.06 0.06 0.07 0.08 0.10 0.10 0.08 0.07 0.07 0.08 0.12 0.13 0.13 0.15 0.18 0.23 0.30 0.35 0.37 0.38 0.38 0.38 0.36 0.37 0.35 0.32 0.32 0.35 0.39 0.41 0.43 0.38 0.38 0.39
0.41 0.32 0.26 0.22 0.20 0.21 0.20 0.18 0.12 0.08 0.07 0.07 0.07 0.09 0.12 0.11 0.09 0.09 0.10 0.10 0.12 0.15 0.15 0.17 0.20 0.24 0.28 0.32 0.36 0.39 0.38 0.36 0.35 0.37 0.37 0.35 0.35 0.36 0.37 0.37 0.36 0.33 0.32 0.32
0.28 0.30 0.28 0.22 0.22 0.23 0.21 0.19 0.13 0.09 0.07 0.08 0.09 0.10 0.13 0.12 0.11 0.11 0.13 0.12 0.13 0.16 0.15 0.16 0.18 0.24 0.30 0.32 0.33 0.41 0.48 0.51 0.46 0.41 0.41 0.42 0.42 0.39 0.37 0.37 0.37 0.34 0.30 0.29
0.20 0.24 0.26 0.23 0.20 0.17 0.17 0.15 0.13 0.10 0.09 0.09 0.09 0.11 0.15 0.15 0.15 0.14 0.13 0.13 0.14 0.16 0.16 0.15 0.16 0.20 0.26 0.30 0.32 0.38 0.45 0.49 0.51 0.49 0.46 0.44 0.42 0.39 0.37 0.35 0.35 0.37 0.36 0.35
0.19 0.18 0.20 0.23 0.19 0.15 0.15 0.16 0.17 0.15 0.11 0.11 0.11 0.11 0.16 0.16 0.15 0.16 0.15 0.15 0.15 0.16 0.17 0.19 0.19 0.20 0.23 0.27 0.31 0.35 0.40 0.46 0.49 0.47 0.47 0.47 0.44 0.41 0.42 0.40 0.40 0.41 0.37 0.39
0.23 0.22 0.24 0.28 0.23 0.18 0.18 0.20 0.22 0.17 0.12 0.10 0.11 0.12 0.15 0.20 0.20 0.19 0.18 0.18 0.16 0.16 0.17 0.18 0.21 0.22 0.24 0.29 0.35 0.37 0.37 0.40 0.45 0.44 0.44 0.46 0.49 0.48 0.49 0.47 0.45 0.45 0.46 0.49
0.25 0.25 0.27 0.29 0.27 0.29 0.30 0.27 0.24 0.17 0.12 0.11 0.11 0.12 0.15 0.18 0.21 0.22 0.21 0.20 0.18 0.18 0.19 0.19 0.20 0.23 0.24 0.30 0.35 0.38 0.41 0.39 0.39 0.41 0.42 0.43 0.46 0.46 0.47 0.45 0.44 0.46 0.49 0.52
0.18 0.20 0.22 0.25 0.28 0.34 0.32 0.28 0.26 0.18 0.13 0.14 0.15 0.14 0.14 0.16 0.18 0.18 0.19 0.21 0.21 0.20 0.20 0.20 0.23 0.23 0.25 0.31 0.34 0.36 0.41 0.42 0.42 0.41 0.39 0.43 0.43 0.42 0.45 0.46 0.47 0.48 0.48 0.48
0.18 0.20 0.24 0.26 0.28 0.28 0.30 0.27 0.21 0.18 0.14 0.15 0.17 0.16 0.15 0.17 0.16 0.17 0.18 0.20 0.20 0.21 0.22 0.23 0.22 0.22 0.27 0.29 0.31 0.30 0.37 0.41 0.40 0.39 0.40 0.39 0.38 0.39 0.41 0.43 0.42 0.44 0.46 0.46
0.23 0.25 0.27 0.30 0.29 0.26 0.30 0.31 0.24 0.20 0.17 0.18 0.19 0.20 0.19 0.19 0.18 0.19 0.19 0.18 0.17 0.17 0.19 0.26 0.24 0.23 0.27 0.32 0.33 0.30 0.32 0.36 0.38 0.39 0.41 0.42 0.41 0.42 0.42 0.42 0.41 0.41 0.42 0.43
0.27 0.28 0.30 0.32 0.32 0.29 0.30 0.36 0.33 0.26 0.21 0.22 0.21 0.22 0.23 0.23 0.21 0.21 0.20 0.21 0.21 0.21 0.20 0.22 0.23 0.28 0.34 0.37 0.31 0.32 0.33 0.34 0.37 0.39 0.41 0.42 0.43 0.43 0.42 0.44 0.44 0.42 0.44 0.48
0.31 0.32 0.33 0.34 0.36 0.35 0.31 0.34 0.35 0.27 0.24 0.26 0.25 0.26 0.28 0.29 0.27 0.26 0.25 0.24 0.24 0.25 0.23 0.24 0.29 0.36 0.42 0.37 0.32 0.32 0.32 0.33 0.33 0.34 0.36 0.38 0.39 0.42 0.43 0.43 0.44 0.44 0.46 0.49
0.32 0.34 0.36 0.37 0.39 0.37 0.37 0.38 0.36 0.31 0.29 0.30 0.30 0.29 0.30 0.33 0.32 0.30 0.30 0.33 0.33 0.31 0.28 0.28 0.32 0.38 0.42 0.35 0.36 0.35 0.31 0.31 0.33 0.34 0.34 0.35 0.38 0.40 0.42 0.41 0.42 0.43 0.45 0.49
0.36 0.37 0.39 0.40 0.42 0.42 0.45 0.45 0.42 0.39 0.36 0.36 0.36 0.34 0.34 0.37 0.42 0.41 0.38 0.37 0.39 0.38 0.32 0.33 0.38 0.39 0.36 0.36 0.38 0.38 0.38 0.38 0.40 0.40 0.40 0.40 0.40 0.40 0.40 0.40 0.40 0.43 0.46 0.52
0.36 0.40 0.43 0.44 0.45 0.45 0.47 0.48 0.49 0.47 0.45 0.44 0.42 0.39 0.39 0.41 0.45 0.46 0.47 0.46 0.46 0.45 0.40 0.40 0.41 0.41 0.40 0.42 0.44 0.42 0.41 0.44 0.47 0.46 0.45 0.46 0.45 0.46 0.48 0.48 0.48 0.50 0.52 0.57
0.32 0.37 0.38 0.39 0.41 0.42 0.44 0.47 0.52 0.53 0.52 0.53 0.51 0.47 0.46 0.49 0.50 0.49 0.49 0.52 0.53 0.52 0.52 0.52 0.52 0.53 0.53 0.54 0.54 0.53 0.49 0.46 0.46 0.46 0.48 0.50 0.51 0.52 0.53 0.55 0.59 0.61 0.62 0.63

GEFSNGP_prec_meanprecacc_252.txt.gz
Total_Precipitation_Accumulation
0.22 0.16 0.15 0.14 0.14 0.15 0.20 0.27 0.43 0.50 0.50 0.51 0.56 0.58 0.59 0.63 0.61 0.52 0.46 0.38 0.34 0.30 0.27 0.31 0.33 0.33 0.31 0.27 0.30 0.33 0.33 0.34 0.39 0.41 0.40 0.39 0.39 0.37 0.36 0.36 0.34 0.29 0.27 0.30
0.16 0.13 0.12 0.10 0.09 0.12 0.16 0.20 0.30 0.31 0.32 0.29 0.27 0.23 0.22 0.25 0.30 0.28 0.27 0.23 0.24 0.24 0.24 0.26 0.27 0.26 0.26 0.24 0.23 0.23 0.23 0.24 0.31 0.37 0.38 0.39 0.35 0.33 0.31 0.32 0.31 0.29 0.26 0.27
0.18 0.12 0.16 0.14 0.08 0.10 0.15 0.14 0.18 0.23 0.27 0.27 0.21 0.16 0.14 0.13 0.14 0.15 0.17 0.19 0.19 0.20 0.25 0.28 0.27 0.27 0.28 0.25 0.22 0.21 0.21 0.24 0.29 0.31 0.29 0.32 0.33 0.28 0.23 0.26 0.26 0.26 0.27 0.27
0.27 0.24 0.27 0.13 0.06 0.07 0.09 0.09 0.13 0.16 0.17 0.18 0.16 0.16 0.14 0.12 0.12 0.13 0.13 0.15 0.18 0.19 0.21 0.27 0.28 0.30 0.31 0.29 0.26 0.23 0.23 0.24 0.27 0.28 0.27 0.26 0.27 0.24 0.21 0.24 0.27 0.27 0.32 0.32
0.40 0.33 0.18 0.10 0.08 0.07 0.07 0.08 0.10 0.10 0.08 0.08 0.09 0.14 0.12 0.10 0.09 0.09 0.10 0.11 0.14 0.17 0.22 0.26 0.28 0.33 0.33 0.30 0.29 0.28 0.26 0.24 0.24 0.25 0.27 0.27 0.23 0.21 0.20 0.24 0.27 0.26 0.28 0.30
0.47 0.42 0.26 0.12 0.07 0.07 0.08 0.12 0.12 0.10 0.09 0.08 0.09 0.14 0.12 0.09 0.08 0.07 0.08 0.09 0.10 0.13 0.17 0.22 0.29 0.32 0.35 0.35 0.30 0.27 0.27 0.27 0.26 0.24 0.22 0.25 0.24 0.24 0.22 0.25 0.28 0.29 0.28 0.25
0.43 0.41 0.21 0.09 0.07 0.10 0.17 0.17 0.13 0.12 0.10 0.11 0.11 0.11 0.10 0.07 0.06 0.07 0.08 0.08 0.09 0.12 0.14 0.19 0.28 0.32 0.38 0.38 0.28 0.26 0.31 0.34 0.33 0.29 0.27 0.31 0.32 0.31 0.28 0.28 0.31 0.32 0.30 0.27
0.39 0.42 0.26 0.10 0.12 0.19 0.20 0.13 0.10 0.10 0.10 0.10 0.09 0.08 0.07 0.07 0.07 0.08 0.09 0.10 0.10 0.11 0.12 0.15 0.24 0.32 0.36 0.39 0.36 0.34 0.34 0.36 0.37 0.37 0.36 0.37 0.39 0.39 0.38 0.36 0.36 0.38 0.39 0.36
0.34 0.26 0.16 0.13 0.16 0.18 0.16 0.14 0.11 0.10 0.10 0.10 0.09 0.08 0.07 0.07 0.07 0.08 0.09 0.10 0.11 0.12 0.12 0.14 0.22 0.27 0.33 0.37 0.41 0.38 0.38 0.38 0.39 0.41 0.41 0.39 0.40 0.42 0.42 0.38 0.37 0.38 0.40 0.41
0.32 0.19 0.17 0.17 0.17 0.18 0.17 0.13 0.10 0.09 0.09 0.09 0.09 0.08 0.08 0.07 0.06 0.08 0.09 0.11 0.13 0.13 0.12 0.14 0.21 0.29 0.40 0.42 0.40 0.41 0.42 0.42 0.41 0.41 0.40 0.39 0.39 0.39 0.38 0.38 0.35 0.36 0.40 0.41
0.37 0.26 0.23 0.23 0.21 0.19 0.17 0.12 0.08 0.07 0.07 0.08 0.08 0.07 0.09 0.09 0.07 0.07 0.09 0.11 0.13 0.14 0.13 0.16 0.21 0.30 0.41 0.41 0.41 0.43 0.45 0.45 0.44 0.41 0.38 0.38 0.37 0.37 0.37 0.36 0.39 0.41 0.42 0.45
0.46 0.32 0.31 0.27 0.21 0.18 0.18 0.14 0.10 0.07 0.06 0.06 0.07 0.08 0.10 0.10 0.08 0.08 0.08 0.10 0.14 0.14 0.14 0.16 0.20 0.25 0.32 0.37 0.39 0.41 0.43 0.44 0.43 0.44 0.41 0.38 0.37 0.37 0.41 0.43 0.46 0.41 0.41 0.42
0.41 0.32 0.26 0.22 0.21 0.22 0.22 0.19 0.13 0.09 0.08 0.07 0.07 0.09 0.12 0.11 0.09 0.10 0.11 0.11 0.13 0.16 0.15 0.18 0.22 0.26 0.30 0.34 0.37 0.40 0.41 0.38 0.38 0.41 0.42 0.40 0.40 0.39 0.39 0.39 0.38 0.36 0.34 0.35
0.28 0.30 0.28 0.23 0.23 0.24 0.22 0.20 0.14 0.09 0.08 0.08 0.09 0.10 0.13 0.13 0.12 0.12 0.13 0.13 0.14 0.16 0.15 0.16 0.19 0.25 0.31 0.32 0.34 0.42 0.50 0.52 0.47 0.42 0.43 0.44 0.44 0.40 0.38 0.38 0.39 0.36 0.33 0.32
0.20 0.24 0.26 0.23 0.21 0.19 0.18 0.16 0.13 0.11 0.09 0.09 0.10 0.11 0.15 0.15 0.16 0.15 0.14 0.14 0.15 0.16 0.16 0.15 0.16 0.21 0.27 0.30 0.33 0.38 0.45 0.50 0.51 0.50 0.47 0.45 0.43 0.40 0.38 0.36 0.36 0.38 0.38 0.37
0.20 0.18 0.20 0.24 0.21 0.16 0.16 0.17 0.18 0.15 0.12 0.11 0.11 0.12 0.16 0.17 0.16 0.16 0.16 0.16 0.16 0.16 0.17 0.19 0.20 0.21 0.23 0.27 0.31 0.35 0.40 0.47 0.50 0.48 0.48 0.48 0.45 0.43 0.43 0.41 0.41 0.42 0.38 0.40
0.24 0.23 0.24 0.28 0.24 0.19 0.19 0.22 0.23 0.18 0.13 0.10 0.12 0.13 0.16 0.21 0.21 0.20 0.19 0.18 0.17 0.16 0.17 0.19 0.21 0.23 0.25 0.29 0.35 0.38 0.38 0.41 0.46 0.45 0.45 0.47 0.50 0.49 0.50 0.48 0.46 0.46 0.47 0.50
0.26 0.25 0.27 0.30 0.28 0.30 0.31 0.28 0.25 0.18 0.13 0.12 0.12 0.13 0.16 0.19 0.23 0.23 0.23 0.21 0.19 0.18 0.19 0.19 0.20 0.23 0.25 0.30 0.35 0.39 0.42 0.40 0.40 0.42 0.43 0.44 0.47 0.47 0.47 0.46 0.46 0.48 0.51 0.54
0.19 0.20 0.23 0.25 0.29 0.35 0.33 0.30 0.27 0.20 0.15 0.16 0.17 0.16 0.16 0.18 0.20 0.20 0.21 0.23 0.22 0.21 0.20 0.20 0.23 0.24 0.25 0.31 0.34 0.37 0.42 0.43 0.43 0.42 0.41 0.44 0.45 0.43 0.46 0.47 0.48 0.50 0.51 0.51
0.19 0.21 0.25 0.28 0.29 0.29 0.31 0.29 0.23 0.19 0.16 0.17 0.19 0.18 0.18 0.19 0.19 0.19 0.21 0.22 0.21 0.21 0.22 0.24 0.23 0.23 0.28 0.29 0.31 0.30 0.38 0.42 0.41 0.40 0.41 0.41 0.40 0.41 0.43 0.44 0.44 0.46 0.48 0.49
0.23 0.26 0.28 0.31 0.30 0.28 0.31 0.32 0.27 0.23 0.20 0.20 0.21 0.22 0.21 0.21 0.20 0.21 0.22 0.20 0.19 0.18 0.20 0.26 0.24 0.24 0.28 0.33 0.34 0.30 0.33 0.37 0.39 0.40 0.42 0.43 0.43 0.44 0.45 0.44 0.43 0.43 0.44 0.45
0.27 0.29 0.32 0.34 0.33 0.31 0.32 0.38 0.36 0.29 0.24 0.24 0.23 0.24 0.25 0.25 0.23 0.24 0.23 0.24 0.22 0.22 0.21 0.22 0.24 0.29 0.36 0.38 0.32 0.32 0.34 0.34 0.38 0.40 0.42 0.43 0.44 0.44 0.45 0.47 0.47 0.45 0.46 0.50
0.31 0.32 0.34 0.35 0.38 0.36 0.33 0.37 0.37 0.30 0.27 0.28 0.27 0.28 0.29 0.30 0.30 0.29 0.27 0.25 0.25 0.26 0.24 0.24 0.29 0.37 0.44 0.38 0.33 0.33 0.33 0.34 0.34 0.35 0.37 0.39 0.41 0.43 0.45 0.45 0.47 0.48 0.49 0.52
0.32 0.35 0.37 0.38 0.40 0.38 0.39 0.40 0.38 0.34 0.32 0.33 0.32 0.31 0.31 0.34 0.34 0.31 0.32 0.34 0.34 0.32 0.28 0.28 0.33 0.39 0.43 0.36 0.37 0.36 0.32 0.32 0.34 0.35 0.35 0.36 0.40 0.42 0.44 0.43 0.44 0.46 0.49 0.54
0.36 0.37 0.40 0.42 0.44 0.44 0.47 0.47 0.45 0.41 0.40 0.39 0.38 0.36 0.35 0.38 0.43 0.41 0.39 0.38 0.40 0.39 0.33 0.33 0.38 0.40 0.36 0.36 0.38 0.38 0.39 0.39 0.41 0.42 0.41 0.42 0.42 0.42 0.42 0.42 0.43 0.45 0.49 0.55
0.37 0.41 0.44 0.46 0.47 0.46 0.49 0.50 0.51 0.49 0.48 0.48 0.44 0.41 0.40 0.42 0.46 0.47 0.47 0.46 0.46 0.46 0.41 0.41 0.41 0.42 0.41 0.43 0.45 0.43 0.42 0.45 0.48 0.47 0.46 0.47 0.46 0.49 0.51 0.51 0.51 0.52 0.55 0.59
0.32 0.37 0.38 0.39 0.41 0.43 0.45 0.49 0.54 0.56 0.56 0.57 0.55 0.50 0.49 0.51 0.51 0.50 0.50 0.52 0.54 0.53 0.52 0.53 0.53 0.53 0.54 0.54 0.54 0.53 0.50 0.47 0.48 0.48 0.49 0.52 0.54 0.55 0.56 0.59 0.62 0.64 0.65 0.66

GEFSNGP_prec_meanprecacc_258.txt.gz
Total_Precipitation_Accumulation
0.22 0.17 0.15 0.14 0.14 0.15 0.20 0.27 0.43 0.50 0.50 0.51 0.56 0.59 0.61 0.64 0.63 0.53 0.48 0.40 0.37 0.35 0.33 0.37 0.38 0.38 0.35 0.31 0.33 0.35 0.34 0.35 0.41 0.43 0.43 0.41 0.42 0.40 0.40 0.39 0.36 0.33 0.32 0.34
0.16 0.14 0.13 0.11 0.09 0.12 0.16 0.21 0.30 0.32 0.32 0.29 0.28 0.24 0.23 0.26 0.31 0.29 0.27 0.24 0.26 0.28 0.30 0.32 0.32 0.31 0.31 0.28 0.26 0.25 0.24 0.25 0.32 0.38 0.39 0.41 0.37 0.35 0.34 0.34 0.34 0.31 0.30 0.31
0.18 0.12 0.17 0.15 0.08 0.10 0.15 0.15 0.18 0.24 0.27 0.28 0.22 0.17 0.14 0.14 0.15 0.16 0.18 0.20 0.21 0.24 0.29 0.34 0.32 0.32 0.32 0.30 0.25 0.23 0.22 0.24 0.31 0.33 0.30 0.34 0.34 0.30 0.26 0.28 0.30 0.29 0.30 0.31
0.28 0.24 0.28 0.14 0.06 0.07 0.09 0.10 0.14 0.16 0.18 0.20 0.17 0.17 0.15 0.12 0.12 0.13 0.14 0.16 0.19 0.22 0.26 0.33 0.34 0.35 0.35 0.33 0.30 0.25 0.24 0.25 0.29 0.29 0.29 0.27 0.29 0.26 0.23 0.26 0.29 0.30 0.35 0.34
0.41 0.33 0.19 0.10 0.08 0.07 0.07 0.08 0.11 0.10 0.09 0.10 0.11 0.15 0.13 0.11 0.10 0.10 0.11 0.12 0.14 0.19 0.27 0.33 0.36 0.39 0.40 0.35 0.32 0.30 0.28 0.26 0.25 0.26 0.28 0.29 0.25 0.24 0.22 0.26 0.29 0.28 0.30 0.32
0.48 0.44 0.27 0.13 0.07 0.07 0.08 0.13 0.12 0.11 0.09 0.09 0.11 0.15 0.12 0.10 0.08 0.08 0.09 0.10 0.11 0.15 0.22 0.29 0.36 0.38 0.40 0.40 0.32 0.28 0.28 0.28 0.28 0.26 0.24 0.26 0.25 0.26 0.25 0.27 0.30 0.31 0.30 0.27
0.43 0.42 0.22 0.09 0.07 0.10 0.18 0.19 0.13 0.12 0.11 0.12 0.12 0.12 0.10 0.08 0.06 0.07 0.08 0.09 0.11 0.14 0.20 0.25 0.34 0.36 0.41 0.41 0.31 0.28 0.32 0.35 0.35 0.32 0.30 0.33 0.34 0.33 0.31 0.30 0.33 0.33 0.31 0.29
0.40 0.43 0.26 0.10 0.12 0.19 0.21 0.14 0.10 0.10 0.10 0.11 0.10 0.10 0.08 0.08 0.07 0.08 0.09 0.11 0.12 0.14 0.19 0.21 0.29 0.35 0.38 0.40 0.38 0.36 0.36 0.37 0.38 0.38 0.38 0.40 0.42 0.42 0.41 0.39 0.38 0.39 0.40 0.37
0.35 0.27 0.17 0.13 0.16 0.18 0.16 0.14 0.11 0.11 0.11 0.10 0.10 0.09 0.08 0.08 0.08 0.09 0.10 0.11 0.13 0.15 0.19 0.21 0.27 0.30 0.33 0.38 0.42 0.40 0.39 0.39 0.40 0.42 0.42 0.41 0.42 0.44 0.45 0.42 0.40 0.40 0.42 0.42
0.34 0.20 0.17 0.17 0.17 0.18 0.17 0.13 0.10 0.09 0.09 0.10 0.10 0.10 0.09 0.08 0.07 0.09 0.10 0.11 0.14 0.17 0.19 0.21 0.26 0.31 0.41 0.42 0.40 0.42 0.43 0.43 0.42 0.41 0.41 0.41 0.41 0.41 0.40 0.40 0.38 0.40 0.42 0.43
0.39 0.27 0.24 0.23 0.21 0.19 0.18 0.12 0.09 0.07 0.07 0.09 0.09 0.09 0.10 0.10 0.08 0.09 0.10 0.12 0.14 0.18 0.20 0.21 0.25 0.31 0.41 0.42 0.41 0.44 0.47 0.46 0.45 0.42 0.39 0.39 0.38 0.38 0.38 0.38 0.41 0.44 0.45 0.47
0.48 0.33 0.31 0.27 0.21 0.18 0.18 0.15 0.10 0.07 0.07 0.07 0.08 0.09 0.12 0.11 0.10 0.09 0.09 0.11 0.15 0.17 0.18 0.20 0.23 0.25 0.33 0.38 0.40 0.43 0.45 0.45 0.44 0.46 0.43 0.40 0.39 0.41 0.44 0.46 0.49 0.44 0.44 0.44
0.43 0.33 0.27 0.23 0.21 0.23 0.23 0.20 0.13 0.09 0.08 0.08 0.08 0.10 0.13 0.12 0.10 0.10 0.11 0.12 0.15 0.18 0.18 0.20 0.23 0.26 0.30 0.34 0.38 0.42 0.42 0.40 0.40 0.43 0.44 0.43 0.43 0.43 0.44 0.44 0.43 0.39 0.38 0.39
0.29 0.31 0.29 0.24 0.24 0.25 0.23 0.20 0.14 0.09 0.08 0.09 0.10 0.11 0.13 0.13 0.13 0.12 0.14 0.13 0.15 0.18 0.17 0.17 0.20 0.25 0.31 0.33 0.35 0.43 0.50 0.53 0.48 0.44 0.44 0.46 0.46 0.44 0.43 0.44 0.44 0.41 0.37 0.36
0.21 0.24 0.27 0.24 0.22 0.19 0.18 0.17 0.14 0.11 0.09 0.10 0.10 0.12 0.15 0.15 0.16 0.15 0.14 0.14 0.16 0.17 0.17 0.16 0.17 0.21 0.27 0.31 0.34 0.39 0.46 0.50 0.52 0.50 0.48 0.46 0.45 0.42 0.40 0.39 0.40 0.42 0.41 0.40
0.20 0.18 0.21 0.25 0.21 0.17 0.17 0.18 0.18 0.16 0.13 0.12 0.12 0.13 0.17 0.17 0.17 0.17 0.16 0.17 0.17 0.17 0.17 0.20 0.20 0.21 0.24 0.28 0.33 0.35 0.40 0.47 0.50 0.49 0.48 0.49 0.46 0.44 0.45 0.43 0.43 0.44 0.40 0.42
0.24 0.23 0.25 0.29 0.25 0.19 0.20 0.22 0.24 0.19 0.15 0.12 0.13 0.14 0.18 0.22 0.21 0.20 0.19 0.19 0.17 0.17 0.18 0.20 0.23 0.24 0.26 0.30 0.36 0.38 0.38 0.41 0.46 0.46 0.45 0.48 0.51 0.50 0.52 0.51 0.48 0.48 0.49 0.52
0.26 0.25 0.27 0.30 0.29 0.30 0.32 0.30 0.27 0.20 0.16 0.14 0.14 0.15 0.18 0.20 0.24 0.24 0.23 0.22 0.20 0.19 0.21 0.20 0.22 0.25 0.26 0.30 0.35 0.39 0.42 0.40 0.40 0.42 0.44 0.44 0.47 0.48 0.48 0.47 0.47 0.50 0.53 0.56
0.19 0.20 0.24 0.26 0.30 0.35 0.35 0.33 0.30 0.23 0.17 0.18 0.19 0.17 0.18 0.20 0.22 0.22 0.22 0.24 0.23 0.23 0.22 0.21 0.25 0.25 0.26 0.31 0.34 0.37 0.42 0.44 0.43 0.42 0.41 0.45 0.45 0.44 0.47 0.48 0.50 0.52 0.52 0.52
0.19 0.21 0.25 0.28 0.29 0.30 0.33 0.31 0.26 0.22 0.18 0.19 0.21 0.20 0.19 0.21 0.22 0.22 0.23 0.24 0.23 0.24 0.24 0.25 0.24 0.24 0.29 0.30 0.32 0.31 0.38 0.42 0.41 0.41 0.42 0.42 0.41 0.42 0.44 0.45 0.45 0.48 0.49 0.50
0.23 0.26 0.28 0.32 0.31 0.29 0.33 0.35 0.29 0.25 0.22 0.22 0.23 0.24 0.23 0.23 0.22 0.23 0.25 0.23 0.21 0.20 0.22 0.29 0.26 0.25 0.29 0.34 0.36 0.31 0.34 0.38 0.40 0.41 0.43 0.44 0.44 0.45 0.45 0.45 0.44 0.44 0.45 0.46
0.27 0.29 0.32 0.34 0.34 0.32 0.34 0.40 0.38 0.31 0.26 0.26 0.25 0.26 0.27 0.27 0.25 0.25 0.24 0.25 0.25 0.25 0.24 0.25 0.26 0.31 0.38 0.40 0.33 0.33 0.35 0.35 0.38 0.41 0.43 0.44 0.45 0.45 0.46 0.48 0.48 0.46 0.48 0.52
0.31 0.33 0.34 0.36 0.39 0.38 0.35 0.38 0.39 0.32 0.29 0.31 0.30 0.30 0.31 0.32 0.31 0.30 0.28 0.26 0.26 0.28 0.27 0.27 0.32 0.41 0.48 0.41 0.35 0.34 0.34 0.35 0.35 0.36 0.37 0.40 0.42 0.44 0.46 0.46 0.48 0.49 0.51 0.54
0.34 0.37 0.39 0.39 0.40 0.39 0.40 0.42 0.40 0.37 0.35 0.36 0.35 0.34 0.34 0.36 0.37 0.33 0.33 0.35 0.35 0.34 0.31 0.31 0.36 0.43 0.47 0.40 0.39 0.37 0.33 0.33 0.35 0.36 0.36 0.37 0.41 0.43 0.45 0.44 0.45 0.47 0.50 0.55
0.37 0.38 0.41 0.42 0.44 0.44 0.48 0.48 0.47 0.44 0.43 0.43 0.42 0.40 0.37 0.41 0.46 0.44 0.40 0.39 0.41 0.40 0.34 0.35 0.41 0.44 0.39 0.39 0.41 0.40 0.40 0.40 0.42 0.43 0.42 0.42 0.42 0.43 0.43 0.43 0.44 0.46 0.49 0.56
0.37 0.41 0.44 0.46 0.47 0.47 0.49 0.51 0.53 0.52 0.51 0.52 0.50 0.46 0.44 0.45 0.49 0.50 0.49 0.47 0.47 0.47 0.42 0.42 0.43 0.44 0.42 0.45 0.47 0.45 0.44 0.46 0.49 0.49 0.48 0.48 0.47 0.49 0.52 0.52 0.52 0.53 0.56 0.60
0.32 0.37 0.38 0.40 0.42 0.43 0.46 0.50 0.56 0.58 0.58 0.61 0.60 0.54 0.52 0.55 0.55 0.53 0.51 0.54 0.56 0.54 0.54 0.54 0.54 0.54 0.55 0.56 0.56 0.55 0.52 0.49 0.49 0.49 0.51 0.53 0.55 0.56 0.58 0.60 0.63 0.65 0.66 0.67

GEFSNGP_prec_meanprecacc_264.txt.gz
Total_Precipitation_Accumulation
0.22 0.17 0.15 0.14 0.14 0.16 0.20 0.27 0.43 0.50 0.50 0.51 0.56 0.59 0.61 0.64 0.63 0.54 0.49 0.41 0.37 0.36 0.35 0.39 0.40 0.40 0.38 0.34 0.37 0.40 0.39 0.39 0.44 0.46 0.46 0.45 0.46 0.44 0.42 0.41 0.39 0.36 0.35 0.38
0.16 0.14 0.13 0.11 0.09 0.12 0.16 0.21 0.30 0.32 0.32 0.30 0.28 0.25 0.23 0.26 0.31 0.29 0.28 0.25 0.26 0.29 0.31 0.35 0.35 0.33 0.33 0.31 0.29 0.29 0.29 0.29 0.36 0.41 0.42 0.44 0.41 0.38 0.37 0.37 0.36 0.34 0.33 0.35
0.18 0.12 0.17 0.15 0.08 0.10 0.15 0.15 0.18 0.24 0.27 0.28 0.22 0.17 0.15 0.14 0.15 0.16 0.18 0.20 0.22 0.24 0.30 0.35 0.34 0.34 0.34 0.32 0.28 0.27 0.27 0.28 0.33 0.35 0.33 0.36 0.38 0.32 0.27 0.30 0.32 0.31 0.32 0.34
0.28 0.25 0.28 0.14 0.07 0.07 0.09 0.10 0.14 0.16 0.18 0.20 0.17 0.17 0.15 0.13 0.13 0.13 0.14 0.16 0.20 0.22 0.27 0.33 0.35 0.36 0.36 0.35 0.32 0.29 0.28 0.29 0.31 0.32 0.31 0.29 0.31 0.28 0.24 0.27 0.31 0.32 0.37 0.36
0.41 0.34 0.19 0.10 0.08 0.08 0.07 0.09 0.11 0.10 0.09 0.10 0.11 0.15 0.13 0.11 0.10 0.10 0.11 0.12 0.14 0.19 0.27 0.33 0.36 0.40 0.41 0.37 0.35 0.34 0.32 0.30 0.29 0.30 0.31 0.31 0.26 0.25 0.24 0.27 0.31 0.30 0.31 0.33
0.49 0.44 0.27 0.13 0.07 0.07 0.09 0.14 0.13 0.11 0.09 0.10 0.11 0.15 0.13 0.11 0.09 0.08 0.09 0.10 0.12 0.15 0.23 0.30 0.37 0.39 0.41 0.42 0.35 0.32 0.32 0.31 0.31 0.29 0.27 0.28 0.27 0.27 0.26 0.29 0.32 0.33 0.32 0.29
0.43 0.42 0.22 0.10 0.07 0.10 0.19 0.20 0.14 0.12 0.11 0.12 0.13 0.13 0.11 0.08 0.07 0.08 0.08 0.10 0.11 0.15 0.21 0.26 0.34 0.37 0.42 0.43 0.33 0.31 0.36 0.38 0.38 0.33 0.32 0.35 0.36 0.34 0.33 0.33 0.36 0.36 0.33 0.31
0.41 0.44 0.28 0.11 0.13 0.19 0.22 0.15 0.11 0.11 0.11 0.11 0.11 0.10 0.09 0.08 0.08 0.09 0.09 0.11 0.12 0.14 0.19 0.23 0.30 0.36 0.39 0.42 0.39 0.39 0.39 0.40 0.40 0.39 0.38 0.41 0.44 0.44 0.43 0.41 0.41 0.42 0.42 0.39
0.36 0.28 0.18 0.14 0.17 0.19 0.17 0.15 0.11 0.11 0.11 0.10 0.10 0.10 0.09 0.09 0.08 0.09 0.10 0.11 0.13 0.15 0.19 0.22 0.29 0.32 0.35 0.40 0.43 0.42 0.41 0.41 0.41 0.43 0.43 0.41 0.43 0.46 0.47 0.44 0.42 0.42 0.44 0.44
0.35 0.21 0.18 0.18 0.17 0.19 0.17 0.14 0.10 0.10 0.10 0.10 0.10 0.11 0.10 0.09 0.08 0.09 0.11 0.12 0.14 0.17 0.19 0.21 0.28 0.34 0.43 0.44 0.41 0.44 0.45 0.45 0.43 0.42 0.42 0.41 0.42 0.42 0.41 0.41 0.40 0.41 0.44 0.44
0.40 0.28 0.25 0.24 0.21 0.20 0.18 0.13 0.09 0.07 0.08 0.09 0.10 0.10 0.11 0.11 0.09 0.09 0.11 0.12 0.15 0.18 0.20 0.22 0.28 0.34 0.43 0.43 0.43 0.46 0.49 0.48 0.46 0.42 0.39 0.39 0.39 0.39 0.39 0.39 0.43 0.46 0.47 0.49
0.49 0.34 0.32 0.27 0.21 0.19 0.18 0.15 0.10 0.08 0.07 0.07 0.08 0.10 0.12 0.12 0.10 0.09 0.10 0.12 0.15 0.17 0.19 0.21 0.25 0.28 0.35 0.39 0.41 0.44 0.47 0.47 0.45 0.46 0.43 0.40 0.39 0.41 0.44 0.46 0.50 0.46 0.47 0.47
0.44 0.34 0.28 0.23 0.21 0.23 0.23 0.20 0.14 0.10 0.09 0.09 0.09 0.10 0.14 0.13 0.11 0.11 0.12 0.13 0.15 0.18 0.19 0.22 0.26 0.29 0.32 0.36 0.39 0.43 0.44 0.42 0.41 0.44 0.44 0.44 0.44 0.43 0.45 0.44 0.43 0.40 0.39 0.40
0.29 0.31 0.29 0.24 0.24 0.25 0.23 0.20 0.14 0.10 0.08 0.09 0.11 0.12 0.14 0.14 0.14 0.14 0.15 0.14 0.16 0.19 0.18 0.19 0.22 0.28 0.33 0.34 0.36 0.44 0.51 0.54 0.49 0.44 0.45 0.46 0.46 0.44 0.43 0.44 0.44 0.41 0.37 0.37
0.21 0.24 0.27 0.24 0.22 0.19 0.18 0.17 0.14 0.11 0.09 0.10 0.11 0.12 0.16 0.16 0.18 0.17 0.15 0.15 0.17 0.18 0.18 0.18 0.19 0.23 0.28 0.32 0.35 0.39 0.46 0.51 0.52 0.51 0.48 0.47 0.45 0.42 0.41 0.39 0.40 0.43 0.42 0.41
0.20 0.19 0.21 0.25 0.21 0.17 0.17 0.18 0.18 0.16 0.13 0.12 0.13 0.13 0.17 0.18 0.18 0.18 0.17 0.18 0.18 0.18 0.18 0.21 0.22 0.22 0.25 0.29 0.33 0.36 0.41 0.48 0.51 0.49 0.49 0.49 0.46 0.45 0.46 0.43 0.43 0.44 0.41 0.43
0.24 0.23 0.25 0.29 0.25 0.19 0.20 0.22 0.24 0.20 0.15 0.12 0.14 0.15 0.18 0.22 0.22 0.21 0.20 0.20 0.19 0.18 0.19 0.21 0.24 0.25 0.27 0.31 0.37 0.39 0.39 0.42 0.47 0.46 0.45 0.48 0.51 0.50 0.52 0.51 0.48 0.49 0.49 0.53
0.26 0.25 0.28 0.30 0.29 0.31 0.33 0.30 0.28 0.21 0.17 0.15 0.15 0.16 0.19 0.21 0.25 0.26 0.25 0.23 0.22 0.21 0.22 0.22 0.23 0.26 0.27 0.31 0.36 0.40 0.43 0.41 0.41 0.43 0.44 0.45 0.48 0.48 0.49 0.48 0.48 0.50 0.53 0.56
0.19 0.21 0.24 0.26 0.30 0.36 0.36 0.34 0.32 0.25 0.19 0.20 0.20 0.18 0.19 0.21 0.24 0.24 0.24 0.25 0.24 0.24 0.23 0.22 0.26 0.26 0.27 0.32 0.35 0.38 0.43 0.44 0.44 0.43 0.42 0.46 0.46 0.44 0.47 0.49 0.50 0.52 0.52 0.52
0.19 0.21 0.25 0.28 0.29 0.31 0.34 0.34 0.29 0.24 0.20 0.21 0.22 0.21 0.21 0.23 0.23 0.23 0.24 0.25 0.24 0.25 0.25 0.26 0.25 0.25 0.29 0.31 0.33 0.32 0.39 0.43 0.42 0.41 0.42 0.43 0.42 0.42 0.45 0.46 0.46 0.48 0.50 0.50
0.24 0.26 0.29 0.32 0.31 0.29 0.35 0.37 0.32 0.27 0.24 0.23 0.24 0.25 0.24 0.24 0.24 0.25 0.27 0.24 0.22 0.21 0.23 0.29 0.27 0.26 0.29 0.35 0.36 0.32 0.34 0.39 0.41 0.42 0.44 0.45 0.45 0.46 0.46 0.46 0.44 0.44 0.46 0.47
0.27 0.29 0.32 0.34 0.35 0.33 0.35 0.41 0.40 0.33 0.28 0.28 0.26 0.28 0.29 0.29 0.27 0.26 0.26 0.27 0.26 0.26 0.25 0.26 0.26 0.32 0.39 0.41 0.34 0.34 0.36 0.36 0.40 0.42 0.44 0.45 0.45 0.46 0.46 0.48 0.48 0.46 0.48 0.52
0.32 0.33 0.34 0.36 0.39 0.38 0.36 0.40 0.42 0.35 0.31 0.32 0.32 0.32 0.33 0.35 0.34 0.33 0.30 0.28 0.28 0.30 0.28 0.28 0.33 0.42 0.49 0.43 0.37 0.36 0.35 0.36 0.37 0.38 0.39 0.41 0.42 0.45 0.47 0.47 0.49 0.49 0.51 0.54
0.34 0.37 0.39 0.39 0.40 0.40 0.42 0.44 0.43 0.40 0.38 0.38 0.37 0.36 0.36 0.40 0.40 0.35 0.35 0.37 0.38 0.36 0.32 0.33 0.38 0.45 0.49 0.41 0.41 0.39 0.35 0.35 0.37 0.38 0.38 0.39 0.42 0.44 0.46 0.45 0.46 0.48 0.50 0.56
0.37 0.39 0.41 0.42 0.44 0.46 0.50 0.50 0.48 0.47 0.46 0.46 0.44 0.42 0.41 0.45 0.51 0.48 0.43 0.42 0.45 0.44 0.36 0.37 0.44 0.46 0.40 0.40 0.42 0.42 0.42 0.43 0.45 0.46 0.44 0.45 0.45 0.45 0.45 0.45 0.45 0.47 0.51 0.57
0.37 0.41 0.45 0.46 0.48 0.49 0.52 0.53 0.55 0.55 0.54 0.55 0.53 0.49 0.47 0.49 0.53 0.54 0.53 0.51 0.51 0.51 0.45 0.44 0.46 0.46 0.43 0.45 0.48 0.47 0.46 0.49 0.52 0.52 0.51 0.52 0.51 0.52 0.54 0.54 0.54 0.55 0.57 0.61
0.32 0.37 0.39 0.40 0.42 0.45 0.48 0.52 0.59 0.61 0.62 0.65 0.63 0.58 0.56 0.59 0.60 0.57 0.55 0.58 0.60 0.58 0.58 0.58 0.57 0.56 0.56 0.57 0.57 0.57 0.54 0.52 0.52 0.53 0.55 0.58 0.59 0.60 0.60 0.62 0.66 0.67 0.67 0.68